AFR436 LFPG-SKBO

Flight info

Callsign AFR436
Flight time N/A
Altitude 34000
Route LGL UN491 UPALO/N0490F330 DCT FEJAC DCT REGHI/M085F340 DCT ETIKI DCT 46N020W 39N030W/M085F360 32N040W 25N050W/M085F380 DCT BNJEE/N0493F380 DCT PPR DCT ITEGO UP533 PBL DCT KIKAS DCT DOPLO DOPLO5W
Aircraft A359/H-SDE2E3GHIJ3J4J5LM1ORWXY/LB1D1

Departure

Time 2026-05-07 20:42
Airport Charles de Gaulle International Airport (LFPG)

Arrival

Time N/A
Airport El Dorado International Airport (SKBO)
Time Latitude Longitude Altitude Speed Heading
2026-05-07 19:37 49.00284 2.58601 361 ft 0 kts 265°
2026-05-07 20:22 49.00284 2.58608 360 ft 4 kts 264°
2026-05-07 20:22 49.00288 2.58649 360 ft 4 kts 255°
2026-05-07 20:23 49.00297 2.58687 360 ft 4 kts 243°
2026-05-07 20:23 49.00312 2.58721 360 ft 4 kts 224°
2026-05-07 20:23 49.00333 2.58741 360 ft 4 kts 182°
2026-05-07 20:23 49.00337 2.58742 360 ft 0 kts 175°
2026-05-07 20:34 49.00317 2.58745 360 ft 6 kts 175°
2026-05-07 20:34 49.00269 2.58750 360 ft 7 kts 175°
2026-05-07 20:35 49.00219 2.58756 360 ft 8 kts 175°
2026-05-07 20:35 49.00164 2.58763 360 ft 8 kts 175°
2026-05-07 20:35 49.00104 2.58767 360 ft 9 kts 186°
2026-05-07 20:35 49.00051 2.58718 360 ft 9 kts 235°
2026-05-07 20:36 49.00029 2.58605 360 ft 13 kts 261°
2026-05-07 20:36 49.00019 2.58443 360 ft 18 kts 265°
2026-05-07 20:36 49.00007 2.58224 360 ft 23 kts 265°
2026-05-07 20:36 48.99992 2.57966 360 ft 24 kts 265°
2026-05-07 20:37 48.99979 2.57712 360 ft 24 kts 265°
2026-05-07 20:37 48.99965 2.57466 360 ft 22 kts 265°
2026-05-07 20:37 48.99953 2.57246 360 ft 21 kts 265°
2026-05-07 20:37 48.99936 2.56918 360 ft 52 kts 265°
2026-05-07 20:38 48.99921 2.56632 360 ft 17 kts 265°
2026-05-07 20:38 48.99911 2.56451 360 ft 17 kts 264°
2026-05-07 20:38 48.99901 2.56273 360 ft 17 kts 266°
2026-05-07 20:38 48.99893 2.56119 360 ft 14 kts 266°
2026-05-07 20:39 48.99891 2.55967 360 ft 14 kts 275°
2026-05-07 20:39 48.99888 2.55835 360 ft 12 kts 242°
2026-05-07 20:39 48.99819 2.55804 360 ft 11 kts 180°
2026-05-07 20:39 48.99746 2.55807 360 ft 11 kts 176°
2026-05-07 20:40 48.99671 2.55817 360 ft 10 kts 174°
2026-05-07 20:40 48.99621 2.55829 360 ft 5 kts 154°
2026-05-07 20:40 48.99608 2.55875 359 ft 5 kts 102°
2026-05-07 20:40 48.99607 2.55928 359 ft 5 kts 88°
2026-05-07 20:41 48.99609 2.55967 360 ft 0 kts 86°
2026-05-07 20:41 48.99611 2.56027 360 ft 26 kts 86°
2026-05-07 20:41 48.99642 2.56614 362 ft 84 kts 85°
2026-05-07 20:42 48.99704 2.57778 360 ft 135 kts 85°
2026-05-07 20:42 48.99792 2.59436 359 ft 178 kts 85°
2026-05-07 20:42 48.99888 2.61433 738 ft 189 kts 86°
2026-05-07 20:42 48.99982 2.63391 1375 ft 187 kts 86°
2026-05-07 20:43 49.00081 2.65383 1945 ft 190 kts 86°
2026-05-07 20:43 49.00185 2.67393 2434 ft 189 kts 86°
2026-05-07 20:43 49.00296 2.69400 2771 ft 194 kts 85°
2026-05-07 20:43 49.00424 2.71499 3146 ft 200 kts 84°
2026-05-07 20:44 49.00571 2.73584 3579 ft 199 kts 84°
2026-05-07 20:44 49.00707 2.75729 3779 ft 209 kts 85°
2026-05-07 20:44 49.00769 2.78053 3929 ft 228 kts 93°
2026-05-07 20:44 49.00526 2.80498 4114 ft 240 kts 102°
2026-05-07 20:45 49.00165 2.83056 4299 ft 254 kts 102°
2026-05-07 20:45 48.99799 2.85759 4530 ft 267 kts 101°
2026-05-07 20:45 48.99480 2.88606 4786 ft 278 kts 98°
2026-05-07 20:45 48.99230 2.91523 5192 ft 282 kts 97°
2026-05-07 20:46 48.98996 2.94496 5691 ft 283 kts 97°
2026-05-07 20:46 48.98568 2.97407 6199 ft 282 kts 114°
2026-05-07 20:46 48.97398 2.99744 6684 ft 279 kts 145°
2026-05-07 20:46 48.95624 3.00921 7046 ft 282 kts 169°
2026-05-07 20:47 48.93669 3.00952 7477 ft 282 kts 192°
2026-05-07 20:47 48.91921 2.99682 7909 ft 282 kts 221°
2026-05-07 20:47 48.90778 2.97309 8343 ft 282 kts 246°
2026-05-07 20:47 48.90204 2.94467 8778 ft 283 kts 254°
2026-05-07 20:48 48.89682 2.91594 9119 ft 288 kts 254°
2026-05-07 20:48 48.89138 2.88643 9504 ft 292 kts 254°
2026-05-07 20:48 48.88590 2.85660 9913 ft 294 kts 254°
2026-05-07 20:48 48.88037 2.82637 10223 ft 300 kts 254°
2026-05-07 20:49 48.87470 2.79532 10406 ft 310 kts 254°
2026-05-07 20:49 48.86931 2.76307 10577 ft 321 kts 259°
2026-05-07 20:49 48.86679 2.72890 10750 ft 330 kts 265°
2026-05-07 20:49 48.86535 2.69358 10925 ft 340 kts 266°
2026-05-07 20:50 48.86422 2.65716 11097 ft 349 kts 267°
2026-05-07 20:50 48.86317 2.61986 11263 ft 358 kts 267°
2026-05-07 20:50 48.86214 2.58164 11425 ft 366 kts 267°
2026-05-07 20:50 48.86111 2.54315 11574 ft 373 kts 267°
2026-05-07 20:51 48.86005 2.50337 11716 ft 380 kts 267°
2026-05-07 20:51 48.85896 2.46290 11848 ft 386 kts 267°
2026-05-07 20:51 48.85785 2.42180 11971 ft 392 kts 267°
2026-05-07 20:51 48.85671 2.38020 12087 ft 398 kts 267°
2026-05-07 20:52 48.85554 2.33795 12222 ft 402 kts 267°
2026-05-07 20:52 48.85434 2.29538 12408 ft 404 kts 267°
2026-05-07 20:52 48.85312 2.25255 12607 ft 406 kts 267°
2026-05-07 20:52 48.85188 2.20976 12804 ft 407 kts 267°
2026-05-07 20:53 48.85061 2.16662 12999 ft 409 kts 267°
2026-05-07 20:53 48.84934 2.12390 13188 ft 410 kts 267°
2026-05-07 20:53 48.84804 2.08061 13373 ft 412 kts 267°
2026-05-07 20:53 48.84671 2.03713 13555 ft 413 kts 267°
2026-05-07 20:54 48.84537 1.99348 13731 ft 414 kts 267°
2026-05-07 20:54 48.84400 1.94968 13902 ft 415 kts 267°
2026-05-07 20:54 48.84261 1.90579 14068 ft 417 kts 267°
2026-05-07 20:54 48.84120 1.86175 14230 ft 418 kts 267°
2026-05-07 20:55 48.83977 1.81761 14388 ft 419 kts 267°
2026-05-07 20:55 48.83832 1.77334 14541 ft 420 kts 266°
2026-05-07 20:55 48.83684 1.72894 14690 ft 421 kts 266°
2026-05-07 20:55 48.83537 1.68506 14832 ft 422 kts 266°
2026-05-07 20:56 48.83384 1.63987 14975 ft 423 kts 266°
2026-05-07 20:56 48.83232 1.59577 15112 ft 424 kts 266°
2026-05-07 20:56 48.83077 1.55102 15246 ft 425 kts 266°
2026-05-07 20:56 48.82919 1.50614 15376 ft 426 kts 266°
2026-05-07 20:57 48.82812 1.47578 15463 ft 427 kts 266°
2026-05-07 20:57 48.82650 1.43066 15589 ft 428 kts 266°
2026-05-07 20:57 48.82434 1.37087 15750 ft 429 kts 266°
2026-05-07 20:57 48.82267 1.32554 15870 ft 430 kts 266°
2026-05-07 20:58 48.82154 1.29489 15948 ft 431 kts 266°
2026-05-07 20:58 48.81985 1.24951 16061 ft 432 kts 266°
2026-05-07 20:58 48.81815 1.20445 16172 ft 432 kts 266°
2026-05-07 20:58 48.81641 1.15893 16293 ft 433 kts 266°
2026-05-07 20:59 48.81465 1.11322 16410 ft 434 kts 266°
2026-05-07 20:59 48.81287 1.06749 16521 ft 435 kts 266°
2026-05-07 20:59 48.81107 1.02164 16634 ft 436 kts 266°
2026-05-07 20:59 48.80924 0.97564 16747 ft 437 kts 266°
2026-05-07 21:00 48.80775 0.93849 16838 ft 437 kts 266°
2026-05-07 21:01 48.80725 0.92618 16869 ft 438 kts 266°
2026-05-07 21:02 48.80538 0.87996 16983 ft 438 kts 266°
2026-05-07 21:02 48.80348 0.83372 17096 ft 439 kts 266°
2026-05-07 21:02 48.80157 0.78748 17208 ft 440 kts 263°
2026-05-07 21:02 48.79915 0.74118 17265 ft 441 kts 263°
2026-05-07 21:03 48.79660 0.69463 17316 ft 442 kts 263°
2026-05-07 21:03 48.79427 0.64872 17384 ft 442 kts 263°
2026-05-07 21:03 48.79205 0.60221 17452 ft 443 kts 264°
2026-05-07 21:03 48.78995 0.55563 17512 ft 443 kts 264°
2026-05-07 21:04 48.78968 0.50870 17557 ft 444 kts 269°
2026-05-07 21:04 48.79115 0.46192 17643 ft 444 kts 271°
2026-05-07 21:04 48.79361 0.41520 17712 ft 445 kts 273°
2026-05-07 21:04 48.79660 0.36822 17775 ft 445 kts 273°
2026-05-07 21:05 48.79970 0.32243 17837 ft 446 kts 274°
2026-05-07 21:05 48.80285 0.27599 17902 ft 446 kts 273°
2026-05-07 21:05 48.80595 0.22911 17966 ft 447 kts 273°
2026-05-07 21:05 48.80896 0.18216 18030 ft 447 kts 273°
2026-05-07 21:06 48.81190 0.13512 18095 ft 448 kts 273°
2026-05-07 21:06 48.81477 0.08808 18161 ft 448 kts 273°
2026-05-07 21:06 48.81761 0.04084 18226 ft 449 kts 273°
2026-05-07 21:06 48.82043 -0.00642 18289 ft 449 kts 273°
2026-05-07 21:07 48.82322 -0.05366 18353 ft 450 kts 273°
2026-05-07 21:07 48.82600 -0.10094 18418 ft 450 kts 272°
2026-05-07 21:07 48.82877 -0.14833 18480 ft 451 kts 272°
2026-05-07 21:07 48.83152 -0.19583 18545 ft 451 kts 272°
2026-05-07 21:08 48.83426 -0.24335 18610 ft 452 kts 272°
2026-05-07 21:08 48.83697 -0.29093 18674 ft 452 kts 272°
2026-05-07 21:08 48.83954 -0.33796 18737 ft 453 kts 272°
2026-05-07 21:08 48.84209 -0.38583 18799 ft 453 kts 272°
2026-05-07 21:09 48.84460 -0.43360 18864 ft 454 kts 272°
2026-05-07 21:09 48.84709 -0.48131 18927 ft 454 kts 272°
2026-05-07 21:09 48.84954 -0.52865 18989 ft 455 kts 272°
2026-05-07 21:09 48.85202 -0.57664 19054 ft 455 kts 272°
2026-05-07 21:10 48.85446 -0.62401 19116 ft 456 kts 272°
2026-05-07 21:10 48.85692 -0.67209 19179 ft 456 kts 272°
2026-05-07 21:10 48.85937 -0.72030 19241 ft 457 kts 272°
2026-05-07 21:10 48.86179 -0.76842 19304 ft 457 kts 272°
2026-05-07 21:11 48.86420 -0.81660 19369 ft 458 kts 272°
2026-05-07 21:11 48.86659 -0.86489 19433 ft 458 kts 272°
2026-05-07 21:11 48.87131 -0.96162 19560 ft 459 kts 272°
2026-05-07 21:12 48.87365 -1.01010 19622 ft 460 kts 272°
2026-05-07 21:12 48.87597 -1.05862 19686 ft 460 kts 272°
2026-05-07 21:12 48.87827 -1.10725 19750 ft 461 kts 272°
2026-05-07 21:12 48.88055 -1.15583 19813 ft 462 kts 272°
2026-05-07 21:13 48.88282 -1.20457 19878 ft 462 kts 271°
2026-05-07 21:13 48.88506 -1.25332 19941 ft 463 kts 271°
2026-05-07 21:13 48.88726 -1.30147 20003 ft 463 kts 271°
2026-05-07 21:13 48.88947 -1.35037 20066 ft 464 kts 271°
2026-05-07 21:14 48.89167 -1.39923 20125 ft 464 kts 271°
2026-05-07 21:14 48.89384 -1.44823 20183 ft 465 kts 271°
2026-05-07 21:14 48.89600 -1.49733 20240 ft 465 kts 271°
2026-05-07 21:14 48.89817 -1.54637 20298 ft 465 kts 271°
2026-05-07 21:15 48.90031 -1.59560 20353 ft 466 kts 271°
2026-05-07 21:15 48.90241 -1.64472 20407 ft 466 kts 271°
2026-05-07 21:15 48.90449 -1.69401 20461 ft 467 kts 271°
2026-05-07 21:15 48.90438 -1.74335 20552 ft 466 kts 263°
2026-05-07 21:16 48.89982 -1.79212 20558 ft 467 kts 257°
2026-05-07 21:16 48.89342 -1.83990 20587 ft 468 kts 255°
2026-05-07 21:16 48.88596 -1.88807 20645 ft 468 kts 254°
2026-05-07 21:16 48.87800 -1.93613 20696 ft 468 kts 253°
2026-05-07 21:17 48.86988 -1.98414 20745 ft 469 kts 253°
2026-05-07 21:17 48.86175 -2.03217 20795 ft 469 kts 253°
2026-05-07 21:17 48.85367 -2.08027 20842 ft 469 kts 253°
2026-05-07 21:17 48.84567 -2.12831 20886 ft 470 kts 253°
2026-05-07 21:18 48.83779 -2.17588 20929 ft 470 kts 253°
2026-05-07 21:18 48.82984 -2.22404 20971 ft 470 kts 253°
2026-05-07 21:18 48.82187 -2.27225 21012 ft 471 kts 253°
2026-05-07 21:18 48.81388 -2.32051 21052 ft 471 kts 253°
2026-05-07 21:19 48.80588 -2.36865 21093 ft 471 kts 253°
2026-05-07 21:19 48.79784 -2.41688 21133 ft 472 kts 253°
2026-05-07 21:19 48.78977 -2.46518 21170 ft 472 kts 253°
2026-05-07 21:19 48.78167 -2.51346 21208 ft 472 kts 253°
2026-05-07 21:20 48.77366 -2.56112 21245 ft 472 kts 253°
2026-05-07 21:20 48.76591 -2.60965 21259 ft 473 kts 256°
2026-05-07 21:20 48.75968 -2.65863 21307 ft 473 kts 258°
2026-05-07 21:20 48.75421 -2.70803 21353 ft 473 kts 258°
2026-05-07 21:21 48.74895 -2.75722 21386 ft 474 kts 258°
2026-05-07 21:21 48.74358 -2.80656 21417 ft 474 kts 258°
2026-05-07 21:21 48.73806 -2.85564 21446 ft 474 kts 258°
2026-05-07 21:21 48.73242 -2.90427 21476 ft 474 kts 258°
2026-05-07 21:22 48.72656 -2.95355 21507 ft 475 kts 257°
2026-05-07 21:22 48.72080 -3.00125 21537 ft 475 kts 257°
2026-05-07 21:22 48.71479 -3.05057 21569 ft 475 kts 257°
2026-05-07 21:22 48.70885 -3.09901 21599 ft 475 kts 257°
2026-05-07 21:23 48.70287 -3.14764 21625 ft 476 kts 257°
2026-05-07 21:23 48.69681 -3.19683 21653 ft 476 kts 257°
2026-05-07 21:23 48.69071 -3.24619 21681 ft 476 kts 257°
2026-05-07 21:23 48.68462 -3.29539 21708 ft 476 kts 257°
2026-05-07 21:24 48.67847 -3.34477 21734 ft 476 kts 257°
2026-05-07 21:24 48.67233 -3.39404 21760 ft 477 kts 257°
2026-05-07 21:24 48.66615 -3.44340 21786 ft 477 kts 257°
2026-05-07 21:24 48.65996 -3.49266 21811 ft 477 kts 257°
2026-05-07 21:25 48.65373 -3.54205 21834 ft 477 kts 257°
2026-05-07 21:25 48.64749 -3.59133 21859 ft 477 kts 257°
2026-05-07 21:25 48.64128 -3.64016 21883 ft 478 kts 257°
2026-05-07 21:25 48.63499 -3.68945 21905 ft 478 kts 257°
2026-05-07 21:26 48.62866 -3.73888 21928 ft 478 kts 257°
2026-05-07 21:26 48.62233 -3.78820 21949 ft 478 kts 257°
2026-05-07 21:26 48.61597 -3.83753 21971 ft 478 kts 257°
2026-05-07 21:26 48.60958 -3.88688 21991 ft 478 kts 257°
2026-05-07 21:27 48.60315 -3.93639 22012 ft 479 kts 257°
2026-05-07 21:27 48.59673 -3.98570 22033 ft 479 kts 257°
2026-05-07 21:27 48.59027 -4.03511 22052 ft 479 kts 256°
2026-05-07 21:27 48.58380 -4.08439 22070 ft 479 kts 256°
2026-05-07 21:28 48.57729 -4.13382 22090 ft 479 kts 256°
2026-05-07 21:28 48.57085 -4.18258 22109 ft 479 kts 256°
2026-05-07 21:28 48.56431 -4.23190 22126 ft 479 kts 256°
2026-05-07 21:28 48.55775 -4.28125 22146 ft 480 kts 256°
2026-05-07 21:29 48.55116 -4.33061 22163 ft 480 kts 256°
2026-05-07 21:29 48.54453 -4.38008 22179 ft 480 kts 256°
2026-05-07 21:29 48.53790 -4.42940 22194 ft 480 kts 256°
2026-05-07 21:29 48.53124 -4.47875 22211 ft 480 kts 256°
2026-05-07 21:30 48.52454 -4.52821 22227 ft 480 kts 256°
2026-05-07 21:30 48.51782 -4.57763 22244 ft 480 kts 256°
2026-05-07 21:30 48.51107 -4.62712 22258 ft 480 kts 256°
2026-05-07 21:30 48.50440 -4.67586 22272 ft 481 kts 256°
2026-05-07 21:31 48.49764 -4.72516 22286 ft 481 kts 256°
2026-05-07 21:31 48.49082 -4.77462 22299 ft 481 kts 256°
2026-05-07 21:31 48.48400 -4.82399 22313 ft 481 kts 256°
2026-05-07 21:31 48.47716 -4.87338 22326 ft 481 kts 256°
2026-05-07 21:32 48.47027 -4.92285 22339 ft 481 kts 256°
2026-05-07 21:32 48.46338 -4.97224 22351 ft 481 kts 256°
2026-05-07 21:32 48.45646 -5.02159 22364 ft 481 kts 256°
2026-05-07 21:32 48.44954 -5.07087 22377 ft 481 kts 256°
2026-05-07 21:33 48.44259 -5.12015 22390 ft 481 kts 256°
2026-05-07 21:33 48.43562 -5.16946 22401 ft 481 kts 256°
2026-05-07 21:33 48.42862 -5.21875 22411 ft 481 kts 256°
2026-05-07 21:33 48.42160 -5.26803 22423 ft 482 kts 256°
2026-05-07 21:34 48.41455 -5.31735 22433 ft 482 kts 256°
2026-05-07 21:34 48.40757 -5.36603 22447 ft 482 kts 256°
2026-05-07 21:34 48.40048 -5.41534 22457 ft 482 kts 255°
2026-05-07 21:34 48.39337 -5.46462 22467 ft 482 kts 255°
2026-05-07 21:35 48.38623 -5.51398 22477 ft 482 kts 255°
2026-05-07 21:35 48.37908 -5.56324 22484 ft 482 kts 255°
2026-05-07 21:35 48.37191 -5.61245 22495 ft 482 kts 255°
2026-05-07 21:35 48.36471 -5.66171 22504 ft 482 kts 255°
2026-05-07 21:36 48.35749 -5.71099 22512 ft 482 kts 255°
2026-05-07 21:36 48.35024 -5.76027 22522 ft 482 kts 255°
2026-05-07 21:36 48.34299 -5.80943 22530 ft 482 kts 255°
2026-05-07 21:36 48.33579 -5.85808 22541 ft 482 kts 255°
2026-05-07 21:37 48.32848 -5.90730 22551 ft 482 kts 255°
2026-05-07 21:37 48.32115 -5.95649 22558 ft 482 kts 255°
2026-05-07 21:37 48.31381 -6.00568 22566 ft 482 kts 255°
2026-05-07 21:37 48.30640 -6.05508 22573 ft 482 kts 255°
2026-05-07 21:38 48.29901 -6.10430 22580 ft 483 kts 255°
2026-05-07 21:38 48.29158 -6.15352 22587 ft 483 kts 255°
2026-05-07 21:38 48.28423 -6.20219 22596 ft 483 kts 255°
2026-05-07 21:38 48.27678 -6.25125 22607 ft 483 kts 255°
2026-05-07 21:39 48.26929 -6.30049 22612 ft 483 kts 255°
2026-05-07 21:39 48.26178 -6.34966 22617 ft 483 kts 255°
2026-05-07 21:39 48.25423 -6.39896 22625 ft 483 kts 255°
2026-05-07 21:39 48.24669 -6.44801 22628 ft 483 kts 255°
2026-05-07 21:40 48.23912 -6.49715 22631 ft 483 kts 255°
2026-05-07 21:40 48.23153 -6.54629 22637 ft 483 kts 255°
2026-05-07 21:40 48.22403 -6.59475 22644 ft 483 kts 255°
2026-05-07 21:40 48.21638 -6.64393 22647 ft 483 kts 255°
2026-05-07 21:41 48.20873 -6.69296 22657 ft 483 kts 255°
2026-05-07 21:41 48.20104 -6.74210 22661 ft 483 kts 255°
2026-05-07 21:41 48.19336 -6.79108 22664 ft 483 kts 254°
2026-05-07 21:41 48.18563 -6.84020 22667 ft 483 kts 254°
2026-05-07 21:42 48.17789 -6.88923 22672 ft 483 kts 254°
2026-05-07 21:42 48.17012 -6.93828 22679 ft 483 kts 254°
2026-05-07 21:42 48.16243 -6.98670 22686 ft 483 kts 254°
2026-05-07 21:42 48.15464 -7.03565 22690 ft 483 kts 254°
2026-05-07 21:43 48.14681 -7.08462 22692 ft 483 kts 254°
2026-05-07 21:43 48.13896 -7.13363 22695 ft 483 kts 254°
2026-05-07 21:43 48.13109 -7.18259 22699 ft 483 kts 254°
2026-05-07 21:43 48.12586 -7.21506 22702 ft 483 kts 254°
2026-05-07 21:44 48.11797 -7.26394 22707 ft 483 kts 254°
2026-05-07 21:44 48.11007 -7.31276 22712 ft 483 kts 254°
2026-05-07 21:44 48.10213 -7.36162 22719 ft 483 kts 254°
2026-05-07 21:44 48.09415 -7.41058 22721 ft 483 kts 254°
2026-05-07 21:45 48.08618 -7.45940 22724 ft 483 kts 254°
2026-05-07 21:45 48.07817 -7.50828 22724 ft 483 kts 254°
2026-05-07 21:45 48.07015 -7.55710 22727 ft 483 kts 254°
2026-05-07 21:45 48.06212 -7.60583 22730 ft 483 kts 254°
2026-05-07 21:46 48.05404 -7.65471 22733 ft 483 kts 254°
2026-05-07 21:46 48.04606 -7.70286 22738 ft 483 kts 254°
2026-05-07 21:46 48.03795 -7.75165 22740 ft 483 kts 253°
2026-05-07 21:46 48.02981 -7.80050 22742 ft 483 kts 253°
2026-05-07 21:47 48.02166 -7.84924 22747 ft 483 kts 253°
2026-05-07 21:47 48.01349 -7.89797 22750 ft 483 kts 253°
2026-05-07 21:47 48.00536 -7.94666 22744 ft 483 kts 255°
2026-05-07 21:47 47.99944 -7.99609 22708 ft 484 kts 261°
2026-05-07 21:48 47.99722 -8.04625 22752 ft 483 kts 265°
2026-05-07 21:48 47.99636 -8.09580 22767 ft 483 kts 267°
2026-05-07 21:48 47.99615 -8.14613 22756 ft 483 kts 268°
2026-05-07 21:48 47.99629 -8.19631 22754 ft 484 kts 268°
2026-05-07 21:49 47.99654 -8.24656 22752 ft 484 kts 268°
2026-05-07 21:49 47.99678 -8.29674 22755 ft 484 kts 268°
2026-05-07 21:49 47.99694 -8.34699 22759 ft 484 kts 268°
2026-05-07 21:49 47.99703 -8.39721 22760 ft 484 kts 268°
2026-05-07 21:50 47.99705 -8.44737 22758 ft 484 kts 268°
2026-05-07 21:50 47.99702 -8.49760 22760 ft 484 kts 268°
2026-05-07 21:50 47.99695 -8.54796 22761 ft 484 kts 268°
2026-05-07 21:50 47.99686 -8.59753 22762 ft 484 kts 267°
2026-05-07 21:51 47.99674 -8.64782 22763 ft 484 kts 267°
2026-05-07 21:51 47.99660 -8.69797 22765 ft 484 kts 267°
2026-05-07 21:51 47.99485 -8.74801 22801 ft 482 kts 261°
2026-05-07 21:51 47.99028 -8.79776 22755 ft 483 kts 259°
2026-05-07 21:52 47.98479 -8.84733 22756 ft 483 kts 258°
2026-05-07 21:52 47.97877 -8.89672 22765 ft 483 kts 257°
2026-05-07 21:52 47.97250 -8.94604 22766 ft 483 kts 257°
2026-05-07 21:52 47.96614 -8.99530 22766 ft 483 kts 257°
2026-05-07 21:53 47.95986 -9.04393 22767 ft 483 kts 257°
2026-05-07 21:53 47.95352 -9.09328 22770 ft 483 kts 257°
2026-05-07 21:53 47.94723 -9.14243 22773 ft 483 kts 257°
2026-05-07 21:53 47.94094 -9.19167 22772 ft 483 kts 257°
2026-05-07 21:54 47.93464 -9.24088 22774 ft 483 kts 257°
2026-05-07 21:54 47.92835 -9.29002 22776 ft 483 kts 257°
2026-05-07 21:54 47.92202 -9.33924 22777 ft 483 kts 257°
2026-05-07 21:54 47.91568 -9.38840 22777 ft 483 kts 257°
2026-05-07 21:55 47.90931 -9.43763 22776 ft 483 kts 257°
2026-05-07 21:55 47.90291 -9.48691 22776 ft 483 kts 257°
2026-05-07 21:55 47.89650 -9.53601 22777 ft 483 kts 257°
2026-05-07 21:55 47.89007 -9.58512 22778 ft 483 kts 257°
2026-05-07 21:56 47.88362 -9.63427 22779 ft 483 kts 256°
2026-05-07 21:56 47.87723 -9.68270 22778 ft 483 kts 256°
2026-05-07 21:56 47.87074 -9.73177 22779 ft 483 kts 256°
2026-05-07 21:56 47.86423 -9.78080 22779 ft 483 kts 256°
2026-05-07 21:57 47.85770 -9.82985 22780 ft 483 kts 256°
2026-05-07 21:57 47.85113 -9.87898 22780 ft 483 kts 256°
2026-05-07 21:57 47.84455 -9.92801 22778 ft 483 kts 256°
2026-05-07 21:57 47.83796 -9.97703 22780 ft 483 kts 256°
2026-05-07 21:58 47.83134 -10.02606 22782 ft 483 kts 256°
2026-05-07 21:58 47.82470 -10.07500 22783 ft 483 kts 256°
2026-05-07 21:58 47.81804 -10.12398 22782 ft 483 kts 256°
2026-05-07 21:58 47.81136 -10.17298 22780 ft 483 kts 256°
2026-05-07 21:59 47.80466 -10.22191 22781 ft 483 kts 256°
2026-05-07 21:59 47.79794 -10.27081 22785 ft 483 kts 256°
2026-05-07 21:59 47.79120 -10.31971 22784 ft 483 kts 256°
2026-05-07 21:59 47.78452 -10.36802 22782 ft 483 kts 256°
2026-05-07 22:00 47.77771 -10.41710 22782 ft 483 kts 256°
2026-05-07 22:00 47.77091 -10.46596 22780 ft 483 kts 256°
2026-05-07 22:00 47.76407 -10.51495 22779 ft 483 kts 256°
2026-05-07 22:00 47.75723 -10.56375 22780 ft 483 kts 256°
2026-05-07 22:01 47.75036 -10.61266 22777 ft 483 kts 256°
2026-05-07 22:01 47.74347 -10.66148 22778 ft 483 kts 256°
2026-05-07 22:01 47.73665 -10.70967 22780 ft 482 kts 256°
2026-05-07 22:01 47.72973 -10.75842 22780 ft 482 kts 256°
2026-05-07 22:02 47.72278 -10.80722 22779 ft 482 kts 256°
2026-05-07 22:02 47.71581 -10.85603 22779 ft 482 kts 256°
2026-05-07 22:02 47.70883 -10.90469 22778 ft 482 kts 256°
2026-05-07 22:02 47.70182 -10.95344 22778 ft 482 kts 256°
2026-05-07 22:03 47.69478 -11.00220 22780 ft 482 kts 256°
2026-05-07 22:03 47.68773 -11.05095 22775 ft 482 kts 255°
2026-05-07 22:03 47.68067 -11.09956 22773 ft 482 kts 255°
2026-05-07 22:03 47.67357 -11.14828 22773 ft 482 kts 255°
2026-05-07 22:04 47.66646 -11.19697 22771 ft 482 kts 255°
2026-05-07 22:04 47.65943 -11.24491 22771 ft 482 kts 255°
2026-05-07 22:04 47.65228 -11.29358 22770 ft 482 kts 255°
2026-05-07 22:04 47.64512 -11.34211 22768 ft 482 kts 255°
2026-05-07 22:05 47.63793 -11.39068 22764 ft 482 kts 255°
2026-05-07 22:05 47.63072 -11.43931 22765 ft 482 kts 255°
2026-05-07 22:05 47.62350 -11.48779 22762 ft 482 kts 255°
2026-05-07 22:05 47.61626 -11.53628 22758 ft 482 kts 255°
2026-05-07 22:06 47.60898 -11.58484 22756 ft 482 kts 255°
2026-05-07 22:06 47.60170 -11.63329 22754 ft 482 kts 255°
2026-05-07 22:06 47.59439 -11.68179 22754 ft 482 kts 255°
2026-05-07 22:06 47.58708 -11.73019 22752 ft 482 kts 255°
2026-05-07 22:07 47.57972 -11.77867 22750 ft 482 kts 255°
2026-05-07 22:07 47.57235 -11.82711 22749 ft 482 kts 255°
2026-05-07 22:07 47.56497 -11.87550 22747 ft 482 kts 255°
2026-05-07 22:07 47.55765 -11.92329 22745 ft 482 kts 255°
2026-05-07 22:08 47.55023 -11.97167 22744 ft 482 kts 255°
2026-05-07 22:08 47.54279 -12.01998 22744 ft 482 kts 255°
2026-05-07 22:08 47.53532 -12.06832 22741 ft 482 kts 255°
2026-05-07 22:08 47.52781 -12.11680 22741 ft 482 kts 255°
2026-05-07 22:09 47.52031 -12.16503 22739 ft 482 kts 255°
2026-05-07 22:09 47.51279 -12.21331 22735 ft 482 kts 255°
2026-05-07 22:09 47.50523 -12.26167 22732 ft 481 kts 255°
2026-05-07 22:09 47.49765 -12.31004 22729 ft 481 kts 255°
2026-05-07 22:10 47.49005 -12.35835 22729 ft 481 kts 255°
2026-05-07 22:10 47.48245 -12.40655 22725 ft 481 kts 255°
2026-05-07 22:10 47.47483 -12.45476 22723 ft 481 kts 254°
2026-05-07 22:10 47.46728 -12.50237 22721 ft 481 kts 254°
2026-05-07 22:11 47.45962 -12.55050 22723 ft 481 kts 254°
2026-05-07 22:11 47.45194 -12.59859 22718 ft 481 kts 254°
2026-05-07 22:11 47.44423 -12.64678 22716 ft 481 kts 254°
2026-05-07 22:11 47.43652 -12.69487 22716 ft 481 kts 254°
2026-05-07 22:12 47.42876 -12.74305 22714 ft 481 kts 254°
2026-05-07 22:12 47.42097 -12.79130 22711 ft 481 kts 254°
2026-05-07 22:12 47.41321 -12.83927 22709 ft 481 kts 254°
2026-05-07 22:12 47.40550 -12.88672 22707 ft 481 kts 254°
2026-05-07 22:13 47.39768 -12.93475 22706 ft 481 kts 254°
2026-05-07 22:13 47.38985 -12.98272 22702 ft 481 kts 254°
2026-05-07 22:13 47.38197 -13.03083 22698 ft 481 kts 254°
2026-05-07 22:13 47.37409 -13.07886 22697 ft 481 kts 254°
2026-05-07 22:14 47.36620 -13.12678 22698 ft 481 kts 254°
2026-05-07 22:14 47.35828 -13.17470 22695 ft 481 kts 254°
2026-05-07 22:14 47.35034 -13.22268 22692 ft 481 kts 254°
2026-05-07 22:14 47.34238 -13.27061 22690 ft 481 kts 254°
2026-05-07 22:15 47.33449 -13.31794 22689 ft 481 kts 254°
2026-05-07 22:15 47.32650 -13.36582 22687 ft 481 kts 254°
2026-05-07 22:15 47.31859 -13.41304 22687 ft 481 kts 253°
2026-05-07 22:15 47.31056 -13.46087 22688 ft 481 kts 253°
2026-05-07 22:16 47.30251 -13.50869 22684 ft 481 kts 253°
2026-05-07 22:16 47.29443 -13.55651 22681 ft 481 kts 253°
2026-05-07 22:16 47.28634 -13.60427 22679 ft 480 kts 253°
2026-05-07 22:16 47.27822 -13.65208 22676 ft 480 kts 253°
2026-05-07 22:17 47.27018 -13.69932 22673 ft 480 kts 253°
2026-05-07 22:17 47.26203 -13.74704 22671 ft 480 kts 253°
2026-05-07 22:17 47.25387 -13.79472 22668 ft 480 kts 253°
2026-05-07 22:17 47.24567 -13.84250 22666 ft 480 kts 253°
2026-05-07 22:18 47.23745 -13.89022 22663 ft 480 kts 253°
2026-05-07 22:18 47.22097 -13.98558 22659 ft 480 kts 253°
2026-05-07 22:18 47.21281 -14.03262 22658 ft 480 kts 253°
2026-05-07 22:19 47.20452 -14.08022 22658 ft 480 kts 253°
2026-05-07 22:19 47.19620 -14.12790 22655 ft 480 kts 253°
2026-05-07 22:19 47.18789 -14.17541 22651 ft 480 kts 253°
2026-05-07 22:19 47.17955 -14.22297 22650 ft 480 kts 253°
2026-05-07 22:20 47.17130 -14.26987 22647 ft 480 kts 253°
2026-05-07 22:20 47.16293 -14.31735 22647 ft 480 kts 253°
2026-05-07 22:20 47.15452 -14.36490 22645 ft 480 kts 253°
2026-05-07 22:20 47.14611 -14.41232 22642 ft 480 kts 253°
2026-05-07 22:21 47.13768 -14.45979 22639 ft 480 kts 253°
2026-05-07 22:21 47.12922 -14.50725 22636 ft 480 kts 253°
2026-05-07 22:21 47.12075 -14.55466 22634 ft 480 kts 253°
2026-05-07 22:21 47.11224 -14.60214 22633 ft 480 kts 253°
2026-05-07 22:22 47.10373 -14.64954 22630 ft 480 kts 253°
2026-05-07 22:22 47.09521 -14.69683 22629 ft 480 kts 253°
2026-05-07 22:22 47.08667 -14.74414 22625 ft 480 kts 253°
2026-05-07 22:22 47.07819 -14.79098 22624 ft 480 kts 252°
2026-05-07 22:23 47.06960 -14.83828 22622 ft 479 kts 252°
2026-05-07 22:23 47.06100 -14.88554 22623 ft 479 kts 252°
2026-05-07 22:23 47.05237 -14.93284 22622 ft 479 kts 252°
2026-05-07 22:23 47.04373 -14.98005 22621 ft 479 kts 252°
2026-05-07 22:24 47.03509 -15.02720 22622 ft 479 kts 252°
2026-05-07 22:24 47.02655 -15.07363 22626 ft 479 kts 252°
2026-05-07 22:24 47.01786 -15.12079 22621 ft 479 kts 252°
2026-05-07 22:24 47.00915 -15.16789 22622 ft 479 kts 252°
2026-05-07 22:25 47.00041 -15.21509 22620 ft 479 kts 252°
2026-05-07 22:25 46.99165 -15.26225 22618 ft 479 kts 252°
2026-05-07 22:25 46.98288 -15.30932 22615 ft 479 kts 252°
2026-05-07 22:25 46.97422 -15.35574 22613 ft 479 kts 252°
2026-05-07 22:26 46.96529 -15.40346 22610 ft 479 kts 252°
2026-05-07 22:26 46.95658 -15.44985 22609 ft 479 kts 252°
2026-05-07 22:26 46.94775 -15.49683 22608 ft 479 kts 252°
2026-05-07 22:26 46.93887 -15.54392 22608 ft 479 kts 252°
2026-05-07 22:27 46.93000 -15.59085 22606 ft 479 kts 252°
2026-05-07 22:27 46.92110 -15.63781 22603 ft 479 kts 252°
2026-05-07 22:27 46.91218 -15.68477 22603 ft 479 kts 252°
2026-05-07 22:27 46.90324 -15.73167 22599 ft 479 kts 252°
2026-05-07 22:28 46.89429 -15.77857 22598 ft 479 kts 252°
2026-05-07 22:28 46.88531 -15.82547 22599 ft 479 kts 252°
2026-05-07 22:28 46.87633 -15.87230 22597 ft 479 kts 252°
2026-05-07 22:28 46.86731 -15.91922 22602 ft 479 kts 252°
2026-05-07 22:29 46.85828 -15.96600 22598 ft 479 kts 252°
2026-05-07 22:29 46.84934 -16.01224 22593 ft 479 kts 252°
2026-05-07 22:29 46.84028 -16.05901 22590 ft 479 kts 252°
2026-05-07 22:29 46.83120 -16.10577 22587 ft 479 kts 252°
2026-05-07 22:30 46.82210 -16.15256 22585 ft 479 kts 252°
2026-05-07 22:30 46.81294 -16.19947 22587 ft 478 kts 252°
2026-05-07 22:30 46.80380 -16.24620 22585 ft 478 kts 251°
2026-05-07 22:30 46.79463 -16.29294 22583 ft 478 kts 251°
2026-05-07 22:31 46.78546 -16.33958 22580 ft 478 kts 251°
2026-05-07 22:31 46.77626 -16.38629 22580 ft 478 kts 251°
2026-05-07 22:31 46.76716 -16.43237 22577 ft 478 kts 251°
2026-05-07 22:31 46.75792 -16.47901 22572 ft 478 kts 251°
2026-05-07 22:32 46.74868 -16.52558 22571 ft 478 kts 251°
2026-05-07 22:32 46.73938 -16.57232 22573 ft 478 kts 251°
2026-05-07 22:32 46.73010 -16.61885 22567 ft 478 kts 251°
2026-05-07 22:32 46.72081 -16.66535 22570 ft 478 kts 251°
2026-05-07 22:33 46.71463 -16.69620 22574 ft 478 kts 251°
2026-05-07 22:33 46.70528 -16.74276 22573 ft 478 kts 251°
2026-05-07 22:33 46.69591 -16.78935 22567 ft 478 kts 251°
2026-05-07 22:33 46.68653 -16.83584 22567 ft 478 kts 251°
2026-05-07 22:34 46.67714 -16.88233 22565 ft 478 kts 251°
2026-05-07 22:34 46.66775 -16.92869 22563 ft 478 kts 251°
2026-05-07 22:34 46.65832 -16.97509 22561 ft 478 kts 251°
2026-05-07 22:34 46.64886 -17.02158 22556 ft 478 kts 251°
2026-05-07 22:35 46.63941 -17.06793 22553 ft 478 kts 251°
2026-05-07 22:35 46.63005 -17.11372 22550 ft 478 kts 251°
2026-05-07 22:35 46.62054 -17.16009 22550 ft 478 kts 251°
2026-05-07 22:35 46.61102 -17.20642 22547 ft 478 kts 251°
2026-05-07 22:36 46.60149 -17.25271 22547 ft 478 kts 251°
2026-05-07 22:36 46.59193 -17.29902 22545 ft 478 kts 251°
2026-05-07 22:36 46.58236 -17.34530 22541 ft 478 kts 251°
2026-05-07 22:36 46.57277 -17.39157 22540 ft 478 kts 251°
2026-05-07 22:37 46.56316 -17.43779 22539 ft 478 kts 251°
2026-05-07 22:37 46.55353 -17.48400 22534 ft 478 kts 251°
2026-05-07 22:37 46.54390 -17.53015 22532 ft 477 kts 251°
2026-05-07 22:37 46.53425 -17.57627 22532 ft 477 kts 251°
2026-05-07 22:38 46.52458 -17.62240 22530 ft 477 kts 251°
2026-05-07 22:38 46.51489 -17.66846 22531 ft 477 kts 250°
2026-05-07 22:38 46.50517 -17.71461 22526 ft 477 kts 250°
2026-05-07 22:38 46.49557 -17.76009 22522 ft 477 kts 250°
2026-05-07 22:39 46.48579 -17.80628 22519 ft 477 kts 250°
2026-05-07 22:39 46.47601 -17.85239 22518 ft 477 kts 250°
2026-05-07 22:39 46.46625 -17.89832 22521 ft 477 kts 250°
2026-05-07 22:39 46.45644 -17.94437 22516 ft 477 kts 250°
2026-05-07 22:40 46.44662 -17.99036 22513 ft 477 kts 250°
2026-05-07 22:40 46.43677 -18.03634 22511 ft 477 kts 250°
2026-05-07 22:40 46.42691 -18.08232 22509 ft 477 kts 250°
2026-05-07 22:40 46.41705 -18.12822 22505 ft 477 kts 250°
2026-05-07 22:41 46.40716 -18.17412 22506 ft 477 kts 250°
2026-05-07 22:41 46.39725 -18.22000 22506 ft 477 kts 250°
2026-05-07 22:41 46.38745 -18.26529 22504 ft 477 kts 250°
2026-05-07 22:41 46.37749 -18.31120 22506 ft 477 kts 250°
2026-05-07 22:42 46.36753 -18.35703 22504 ft 477 kts 250°
2026-05-07 22:42 46.35754 -18.40288 22500 ft 477 kts 250°
2026-05-07 22:42 46.34755 -18.44866 22497 ft 477 kts 250°
2026-05-07 22:42 46.33755 -18.49436 22493 ft 477 kts 250°
2026-05-07 22:43 46.32752 -18.54009 22493 ft 477 kts 250°
2026-05-07 22:43 46.31746 -18.58591 22490 ft 477 kts 250°
2026-05-07 22:43 46.30740 -18.63158 22486 ft 477 kts 250°
2026-05-07 22:43 46.29731 -18.67731 22485 ft 477 kts 250°
2026-05-07 22:44 46.28721 -18.72294 22480 ft 477 kts 250°
2026-05-07 22:44 46.27724 -18.76793 22483 ft 476 kts 250°
2026-05-07 22:44 46.26709 -18.81360 22479 ft 476 kts 250°
2026-05-07 22:44 46.25695 -18.85915 22479 ft 476 kts 250°
2026-05-07 22:45 46.24678 -18.90473 22475 ft 476 kts 250°
2026-05-07 22:45 46.23660 -18.95028 22474 ft 476 kts 250°
2026-05-07 22:45 46.22638 -18.99588 22472 ft 476 kts 250°
2026-05-07 22:45 46.21615 -19.04142 22468 ft 476 kts 250°
2026-05-07 22:46 46.20590 -19.08697 22465 ft 476 kts 249°
2026-05-07 22:46 46.19565 -19.13247 22464 ft 476 kts 249°
2026-05-07 22:46 46.18537 -19.17794 22460 ft 476 kts 249°
2026-05-07 22:46 46.17522 -19.22275 22457 ft 476 kts 249°
2026-05-07 22:47 46.16490 -19.26825 22455 ft 476 kts 249°
2026-05-07 22:47 46.15458 -19.31362 22452 ft 476 kts 249°
2026-05-07 22:47 46.14425 -19.35893 22448 ft 476 kts 249°
2026-05-07 22:47 46.13389 -19.40432 22447 ft 476 kts 249°
2026-05-07 22:48 46.12350 -19.44968 22445 ft 476 kts 249°
2026-05-07 22:48 46.11312 -19.49496 22443 ft 476 kts 249°
2026-05-07 22:48 46.10269 -19.54031 22439 ft 476 kts 249°
2026-05-07 22:48 46.09225 -19.58568 22437 ft 476 kts 249°
2026-05-07 22:49 46.08194 -19.63034 22433 ft 476 kts 249°
2026-05-07 22:49 46.07146 -19.67565 22432 ft 476 kts 249°
2026-05-07 22:49 46.06099 -19.72084 22429 ft 476 kts 249°
2026-05-07 22:49 46.05048 -19.76608 22429 ft 476 kts 249°
2026-05-07 22:50 46.03996 -19.81129 22428 ft 476 kts 249°
2026-05-07 22:50 46.02943 -19.85643 22423 ft 476 kts 249°
2026-05-07 22:50 46.01885 -19.90170 22421 ft 476 kts 249°
2026-05-07 22:50 46.00796 -19.94658 22442 ft 475 kts 246°
2026-05-07 22:51 45.99435 -19.98914 22453 ft 474 kts 239°
2026-05-07 22:51 45.97680 -20.02888 22423 ft 475 kts 232°
2026-05-07 22:51 45.95671 -20.06682 22377 ft 476 kts 229°
2026-05-07 22:51 45.93572 -20.10366 22383 ft 475 kts 227°
2026-05-07 22:52 45.91429 -20.13992 22390 ft 475 kts 227°
2026-05-07 22:52 45.89269 -20.17596 22393 ft 475 kts 227°
2026-05-07 22:52 45.87134 -20.21156 22392 ft 475 kts 227°
2026-05-07 22:52 45.84980 -20.24761 22390 ft 475 kts 227°
2026-05-07 22:53 45.82835 -20.28369 22388 ft 475 kts 227°
2026-05-07 22:53 45.80692 -20.31986 22388 ft 475 kts 227°
2026-05-07 22:53 45.78558 -20.35593 22385 ft 475 kts 227°
2026-05-07 22:53 45.76419 -20.39209 22381 ft 475 kts 227°
2026-05-07 22:54 45.74282 -20.42820 22377 ft 475 kts 227°
2026-05-07 22:54 45.72146 -20.46423 22375 ft 475 kts 227°
2026-05-07 22:54 45.70010 -20.50021 22372 ft 475 kts 227°
2026-05-07 22:54 45.67869 -20.53623 22369 ft 475 kts 227°
2026-05-07 22:55 45.65756 -20.57172 22366 ft 474 kts 227°
2026-05-07 22:55 45.63616 -20.60761 22364 ft 474 kts 227°
2026-05-07 22:55 45.61474 -20.64350 22360 ft 474 kts 227°
2026-05-07 22:55 45.59330 -20.67936 22358 ft 474 kts 227°
2026-05-07 22:56 45.57185 -20.71520 22356 ft 474 kts 227°
2026-05-07 22:56 45.55041 -20.75097 22356 ft 474 kts 227°
2026-05-07 22:56 45.52889 -20.78683 22353 ft 474 kts 227°
2026-05-07 22:56 45.50742 -20.82256 22349 ft 474 kts 227°
2026-05-07 22:57 45.48595 -20.85825 22345 ft 474 kts 227°
2026-05-07 22:57 45.46448 -20.89389 22342 ft 474 kts 227°
2026-05-07 22:57 45.44298 -20.92953 22340 ft 474 kts 227°
2026-05-07 22:57 45.42149 -20.96512 22338 ft 474 kts 227°
2026-05-07 22:58 45.40025 -21.00025 22335 ft 474 kts 227°
2026-05-07 22:58 45.37870 -21.03583 22332 ft 474 kts 227°
2026-05-07 22:58 45.35715 -21.07138 22329 ft 474 kts 227°
2026-05-07 22:58 45.33561 -21.10688 22327 ft 474 kts 227°
2026-05-07 22:59 45.31404 -21.14236 22324 ft 474 kts 227°
2026-05-07 22:59 45.29248 -21.17779 22323 ft 474 kts 227°
2026-05-07 22:59 45.27092 -21.21316 22322 ft 474 kts 227°
2026-05-07 22:59 45.24936 -21.24850 22320 ft 474 kts 227°
2026-05-07 23:00 45.22778 -21.28383 22319 ft 474 kts 227°
2026-05-07 23:00 45.20617 -21.31916 22316 ft 474 kts 226°
2026-05-07 23:00 45.18482 -21.35402 22312 ft 474 kts 226°
2026-05-07 23:00 45.16321 -21.38926 22309 ft 474 kts 226°
2026-05-07 23:01 45.14160 -21.42447 22308 ft 474 kts 226°
2026-05-07 23:01 45.11997 -21.45965 22304 ft 473 kts 226°
2026-05-07 23:01 45.09831 -21.49484 22301 ft 473 kts 226°
2026-05-07 23:01 45.07662 -21.53004 22298 ft 473 kts 226°
2026-05-07 23:02 45.05493 -21.56519 22298 ft 473 kts 226°
2026-05-07 23:02 45.03326 -21.60026 22298 ft 473 kts 226°
2026-05-07 23:02 45.01154 -21.63537 22293 ft 473 kts 226°
2026-05-07 23:02 44.99013 -21.66994 22293 ft 473 kts 226°
2026-05-07 23:03 44.96844 -21.70491 22290 ft 473 kts 226°
2026-05-07 23:03 44.94672 -21.73989 22286 ft 473 kts 226°
2026-05-07 23:03 44.92501 -21.77482 22283 ft 473 kts 226°
2026-05-07 23:03 44.90328 -21.80971 22280 ft 473 kts 226°
2026-05-07 23:04 44.88154 -21.84461 22279 ft 473 kts 226°
2026-05-07 23:04 44.85979 -21.87945 22276 ft 473 kts 226°
2026-05-07 23:04 44.83802 -21.91430 22273 ft 473 kts 226°
2026-05-07 23:04 44.81625 -21.94909 22270 ft 473 kts 226°
2026-05-07 23:05 44.79481 -21.98333 22269 ft 473 kts 226°
2026-05-07 23:05 44.77303 -22.01807 22268 ft 473 kts 226°
2026-05-07 23:05 44.75122 -22.05279 22267 ft 473 kts 226°
2026-05-07 23:05 44.72944 -22.08745 22261 ft 473 kts 226°
2026-05-07 23:06 44.70765 -22.12205 22262 ft 473 kts 226°
2026-05-07 23:06 44.68580 -22.15672 22258 ft 473 kts 226°
2026-05-07 23:06 44.66401 -22.19125 22258 ft 473 kts 226°
2026-05-07 23:06 44.64220 -22.22578 22256 ft 473 kts 226°
2026-05-07 23:07 44.62031 -22.26038 22252 ft 473 kts 226°
2026-05-07 23:07 44.59848 -22.29484 22251 ft 473 kts 226°
2026-05-07 23:07 44.57662 -22.32932 22250 ft 472 kts 226°
2026-05-07 23:07 44.55475 -22.36377 22249 ft 472 kts 226°
2026-05-07 23:08 44.53285 -22.39822 22245 ft 472 kts 226°
2026-05-07 23:08 44.51097 -22.43260 22244 ft 472 kts 226°
2026-05-07 23:08 44.48937 -22.46649 22241 ft 472 kts 226°
2026-05-07 23:08 44.46750 -22.50078 22239 ft 472 kts 226°
2026-05-07 23:09 44.44554 -22.53516 22237 ft 472 kts 226°
2026-05-07 23:09 44.42363 -22.56942 22236 ft 472 kts 226°
2026-05-07 23:09 44.40173 -22.60361 22237 ft 472 kts 226°
2026-05-07 23:09 44.37980 -22.63781 22232 ft 472 kts 226°
2026-05-07 23:10 44.35787 -22.67197 22230 ft 472 kts 226°
2026-05-07 23:10 44.33590 -22.70616 22227 ft 472 kts 226°
2026-05-07 23:10 44.31395 -22.74027 22225 ft 472 kts 226°
2026-05-07 23:10 44.29196 -22.77441 22222 ft 472 kts 225°
2026-05-07 23:11 44.27001 -22.80844 22220 ft 472 kts 225°
2026-05-07 23:11 44.24800 -22.84253 22216 ft 472 kts 225°
2026-05-07 23:11 44.22594 -22.87665 22214 ft 472 kts 225°
2026-05-07 23:11 44.20396 -22.91061 22214 ft 472 kts 225°
2026-05-07 23:12 44.18223 -22.94414 22212 ft 472 kts 225°
2026-05-07 23:12 44.16018 -22.97812 22208 ft 472 kts 225°
2026-05-07 23:12 44.13815 -23.01203 22205 ft 472 kts 225°
2026-05-07 23:12 44.11608 -23.04595 22204 ft 472 kts 225°
2026-05-07 23:13 44.09409 -23.07972 22200 ft 472 kts 225°
2026-05-07 23:13 44.07203 -23.11355 22198 ft 472 kts 225°
2026-05-07 23:13 44.05000 -23.14731 22196 ft 472 kts 225°
2026-05-07 23:13 44.02793 -23.18107 22193 ft 472 kts 225°
2026-05-07 23:14 44.00588 -23.21477 22191 ft 472 kts 225°
2026-05-07 23:14 43.98379 -23.24849 22189 ft 471 kts 225°
2026-05-07 23:14 43.96201 -23.28168 22186 ft 471 kts 225°
2026-05-07 23:14 43.93995 -23.31529 22184 ft 471 kts 225°
2026-05-07 23:15 43.91783 -23.34892 22184 ft 471 kts 225°
2026-05-07 23:15 43.89570 -23.38254 22181 ft 471 kts 225°
2026-05-07 23:15 43.87357 -23.41611 22178 ft 471 kts 225°
2026-05-07 23:15 43.85140 -23.44972 22176 ft 471 kts 225°
2026-05-07 23:16 43.82927 -23.48321 22173 ft 471 kts 225°
2026-05-07 23:16 43.80714 -23.51668 22171 ft 471 kts 225°
2026-05-07 23:16 43.78496 -23.55018 22171 ft 471 kts 225°
2026-05-07 23:16 43.76280 -23.58359 22169 ft 471 kts 225°
2026-05-07 23:17 43.74064 -23.61697 22164 ft 471 kts 225°
2026-05-07 23:17 43.71849 -23.65032 22161 ft 471 kts 225°
2026-05-07 23:17 43.69657 -23.68326 22162 ft 471 kts 225°
2026-05-07 23:17 43.67437 -23.71659 22160 ft 471 kts 225°
2026-05-07 23:18 43.65215 -23.74991 22159 ft 471 kts 225°
2026-05-07 23:18 43.62997 -23.78314 22154 ft 471 kts 225°
2026-05-07 23:18 43.60776 -23.81636 22151 ft 471 kts 225°
2026-05-07 23:18 43.58550 -23.84962 22150 ft 471 kts 225°
2026-05-07 23:19 43.56329 -23.88278 22148 ft 471 kts 225°
2026-05-07 23:19 43.54104 -23.91595 22145 ft 471 kts 225°
2026-05-07 23:19 43.51879 -23.94907 22142 ft 471 kts 225°
2026-05-07 23:19 43.49653 -23.98218 22139 ft 471 kts 225°
2026-05-07 23:20 43.47427 -24.01525 22137 ft 471 kts 225°
2026-05-07 23:20 43.45200 -24.04830 22133 ft 471 kts 225°
2026-05-07 23:20 43.42972 -24.08132 22131 ft 471 kts 225°
2026-05-07 23:20 43.40744 -24.11430 22129 ft 470 kts 225°
2026-05-07 23:21 43.39265 -24.13617 22127 ft 470 kts 225°
2026-05-07 23:21 43.36311 -24.17982 22123 ft 470 kts 225°
2026-05-07 23:21 43.34080 -24.21273 22120 ft 470 kts 225°
2026-05-07 23:21 43.31849 -24.24561 22120 ft 470 kts 225°
2026-05-07 23:22 43.30338 -24.26785 22117 ft 470 kts 224°
2026-05-07 23:22 43.28135 -24.30025 22115 ft 470 kts 224°
2026-05-07 23:22 43.25906 -24.33300 22114 ft 470 kts 224°
2026-05-07 23:22 43.23668 -24.36584 22115 ft 470 kts 224°
2026-05-07 23:23 43.21436 -24.39855 22111 ft 470 kts 224°
2026-05-07 23:23 43.19198 -24.43131 22106 ft 470 kts 224°
2026-05-07 23:23 43.16959 -24.46404 22103 ft 470 kts 224°
2026-05-07 23:23 43.14720 -24.49675 22100 ft 470 kts 224°
2026-05-07 23:24 43.12483 -24.52940 22097 ft 470 kts 224°
2026-05-07 23:24 43.10273 -24.56159 22094 ft 470 kts 224°
2026-05-07 23:24 43.08036 -24.59416 22094 ft 470 kts 224°
2026-05-07 23:24 43.05792 -24.62679 22091 ft 470 kts 224°
2026-05-07 23:25 43.03549 -24.65936 22087 ft 470 kts 224°
2026-05-07 23:25 43.01308 -24.69187 22085 ft 470 kts 224°
2026-05-07 23:25 42.99067 -24.72435 22082 ft 470 kts 224°
2026-05-07 23:25 42.96825 -24.75679 22078 ft 470 kts 224°
2026-05-07 23:26 42.94582 -24.78922 22077 ft 470 kts 224°
2026-05-07 23:26 42.92338 -24.82162 22073 ft 470 kts 224°
2026-05-07 23:26 42.90092 -24.85403 22070 ft 470 kts 224°
2026-05-07 23:26 42.87846 -24.88639 22069 ft 469 kts 224°
2026-05-07 23:27 42.83381 -24.95060 22061 ft 469 kts 224°
2026-05-07 23:27 42.81137 -24.98282 22059 ft 469 kts 224°
2026-05-07 23:27 42.78886 -25.01510 22057 ft 469 kts 224°
2026-05-07 23:28 42.76637 -25.04733 22053 ft 469 kts 224°
2026-05-07 23:28 42.74385 -25.07956 22052 ft 469 kts 224°
2026-05-07 23:28 42.72133 -25.11174 22048 ft 469 kts 224°
2026-05-07 23:28 42.69880 -25.14391 22044 ft 469 kts 224°
2026-05-07 23:29 42.67628 -25.17604 22041 ft 469 kts 224°
2026-05-07 23:29 42.65377 -25.20810 22039 ft 469 kts 224°
2026-05-07 23:29 42.63122 -25.24020 22036 ft 469 kts 224°
2026-05-07 23:29 42.60863 -25.27230 22033 ft 469 kts 224°
2026-05-07 23:30 42.58607 -25.30433 22030 ft 469 kts 224°
2026-05-07 23:30 42.56380 -25.33592 22028 ft 469 kts 224°
2026-05-07 23:30 42.54125 -25.36786 22026 ft 469 kts 224°
2026-05-07 23:30 42.51868 -25.39979 22024 ft 469 kts 224°
2026-05-07 23:31 42.49610 -25.43171 22019 ft 469 kts 224°
2026-05-07 23:31 42.47349 -25.46364 22015 ft 469 kts 224°
2026-05-07 23:31 42.45094 -25.49544 22012 ft 469 kts 224°
2026-05-07 23:31 42.42832 -25.52730 22009 ft 469 kts 224°
2026-05-07 23:32 42.40573 -25.55910 22005 ft 469 kts 224°
2026-05-07 23:32 42.38314 -25.59085 22002 ft 469 kts 224°
2026-05-07 23:32 42.36049 -25.62265 22000 ft 469 kts 224°
2026-05-07 23:32 42.33782 -25.65445 21996 ft 468 kts 224°
2026-05-07 23:33 42.31522 -25.68613 21995 ft 468 kts 224°
2026-05-07 23:33 42.29285 -25.71743 21990 ft 468 kts 224°
2026-05-07 23:33 42.27020 -25.74908 21987 ft 468 kts 224°
2026-05-07 23:33 42.24755 -25.78071 21983 ft 468 kts 223°
2026-05-07 23:34 42.22488 -25.81235 21980 ft 468 kts 223°
2026-05-07 23:34 42.20221 -25.84393 21978 ft 468 kts 223°
2026-05-07 23:34 42.17957 -25.87544 21974 ft 468 kts 223°
2026-05-07 23:34 42.15688 -25.90698 21970 ft 468 kts 223°
2026-05-07 23:35 42.13419 -25.93849 21967 ft 468 kts 223°
2026-05-07 23:35 42.11151 -25.96996 21965 ft 468 kts 223°
2026-05-07 23:35 42.08885 -26.00136 21962 ft 468 kts 223°
2026-05-07 23:35 42.06615 -26.03278 21959 ft 468 kts 223°
2026-05-07 23:36 42.04341 -26.06422 21956 ft 468 kts 223°
2026-05-07 23:36 42.02068 -26.09562 21952 ft 468 kts 223°
2026-05-07 23:36 41.99792 -26.12702 21950 ft 468 kts 223°
2026-05-07 23:36 41.97523 -26.15829 21946 ft 468 kts 223°
2026-05-07 23:37 41.95251 -26.18957 21943 ft 468 kts 223°
2026-05-07 23:37 41.92977 -26.22084 21939 ft 468 kts 223°
2026-05-07 23:37 41.90732 -26.25168 21938 ft 468 kts 223°
2026-05-07 23:37 41.88459 -26.28287 21934 ft 468 kts 223°
2026-05-07 23:38 41.86181 -26.31410 21935 ft 467 kts 223°
2026-05-07 23:38 41.83901 -26.34532 21932 ft 467 kts 223°
2026-05-07 23:38 41.81621 -26.37649 21929 ft 467 kts 223°
2026-05-07 23:38 41.79344 -26.40761 21926 ft 467 kts 223°
2026-05-07 23:39 41.77062 -26.43875 21923 ft 467 kts 223°
2026-05-07 23:39 41.74784 -26.46981 21919 ft 467 kts 223°
2026-05-07 23:39 41.72507 -26.50082 21915 ft 467 kts 223°
2026-05-07 23:39 41.70250 -26.53152 21913 ft 467 kts 223°
2026-05-07 23:40 41.67971 -26.56251 21912 ft 467 kts 223°
2026-05-07 23:40 41.65687 -26.59351 21908 ft 467 kts 223°
2026-05-07 23:40 41.63406 -26.62443 21904 ft 467 kts 223°
2026-05-07 23:40 41.61125 -26.65533 21901 ft 467 kts 223°
2026-05-07 23:41 41.58840 -26.68625 21899 ft 467 kts 223°
2026-05-07 23:41 41.56557 -26.71711 21896 ft 467 kts 223°
2026-05-07 23:41 41.54269 -26.74802 21893 ft 467 kts 223°
2026-05-07 23:41 41.51982 -26.77887 21890 ft 467 kts 223°
2026-05-07 23:42 41.49700 -26.80961 21887 ft 467 kts 223°
2026-05-07 23:42 41.47412 -26.84040 21885 ft 467 kts 223°
2026-05-07 23:42 41.45124 -26.87117 21883 ft 467 kts 223°
2026-05-07 23:42 41.42864 -26.90151 21881 ft 467 kts 223°
2026-05-07 23:43 41.40576 -26.93222 21879 ft 467 kts 223°
2026-05-07 23:43 41.38286 -26.96291 21876 ft 467 kts 223°
2026-05-07 23:43 41.35995 -26.99358 21874 ft 467 kts 223°
2026-05-07 23:43 41.33706 -27.02419 21872 ft 467 kts 223°
2026-05-07 23:44 41.31413 -27.05483 21868 ft 466 kts 223°
2026-05-07 23:44 41.29123 -27.08538 21865 ft 466 kts 223°
2026-05-07 23:44 41.26828 -27.11598 21862 ft 466 kts 223°
2026-05-07 23:44 41.24566 -27.14611 21859 ft 466 kts 223°
2026-05-07 23:45 41.22273 -27.17662 21857 ft 466 kts 223°
2026-05-07 23:45 41.19981 -27.20709 21854 ft 466 kts 223°
2026-05-07 23:45 41.17685 -27.23757 21852 ft 466 kts 223°
2026-05-07 23:45 41.15386 -27.26805 21850 ft 466 kts 223°
2026-05-07 23:46 41.13088 -27.29851 21846 ft 466 kts 222°
2026-05-07 23:46 41.10787 -27.32895 21843 ft 466 kts 222°
2026-05-07 23:46 41.08494 -27.35927 21841 ft 466 kts 222°
2026-05-07 23:46 41.06197 -27.38961 21838 ft 466 kts 222°
2026-05-07 23:47 41.03898 -27.41993 21835 ft 466 kts 222°
2026-05-07 23:47 41.01627 -27.44986 21833 ft 466 kts 222°
2026-05-07 23:47 40.99332 -27.48007 21831 ft 466 kts 222°
2026-05-07 23:47 40.97031 -27.51034 21828 ft 466 kts 222°
2026-05-07 23:48 40.94723 -27.54066 21826 ft 466 kts 222°
2026-05-07 23:48 40.92414 -27.57098 21823 ft 466 kts 222°
2026-05-07 23:48 40.90113 -27.60114 21819 ft 466 kts 222°
2026-05-07 23:48 40.87812 -27.63128 21818 ft 466 kts 222°
2026-05-07 23:49 40.85509 -27.66141 21814 ft 466 kts 222°
2026-05-07 23:49 40.83208 -27.69149 21811 ft 466 kts 222°
2026-05-07 23:49 40.80905 -27.72157 21810 ft 466 kts 222°
2026-05-07 23:49 40.78631 -27.75122 21807 ft 466 kts 222°
2026-05-07 23:50 40.76325 -27.78127 21804 ft 466 kts 222°
2026-05-07 23:50 40.74020 -27.81128 21801 ft 465 kts 222°
2026-05-07 23:50 40.71712 -27.84128 21798 ft 465 kts 222°
2026-05-07 23:50 40.69409 -27.87120 21795 ft 465 kts 222°
2026-05-07 23:51 40.67100 -27.90116 21793 ft 465 kts 222°
2026-05-07 23:51 40.64791 -27.93110 21790 ft 465 kts 222°
2026-05-07 23:51 40.62484 -27.96096 21788 ft 465 kts 222°
2026-05-07 23:51 40.60173 -27.99086 21785 ft 465 kts 222°
2026-05-07 23:52 40.57865 -28.02069 21782 ft 465 kts 222°
2026-05-07 23:52 40.55549 -28.05059 21780 ft 465 kts 222°
2026-05-07 23:52 40.53269 -28.07999 21777 ft 465 kts 222°
2026-05-07 23:52 40.50957 -28.10978 21774 ft 465 kts 222°
2026-05-07 23:53 40.48648 -28.13950 21772 ft 465 kts 222°
2026-05-07 23:53 40.46335 -28.16923 21769 ft 465 kts 222°
2026-05-07 23:53 40.44020 -28.19897 21767 ft 465 kts 222°
2026-05-07 23:53 40.41707 -28.22865 21765 ft 465 kts 222°
2026-05-07 23:54 40.39394 -28.25830 21764 ft 465 kts 222°
2026-05-07 23:54 40.37075 -28.28799 21759 ft 465 kts 222°
2026-05-07 23:54 40.34787 -28.31726 21758 ft 465 kts 222°
2026-05-07 23:54 40.32482 -28.34671 21755 ft 465 kts 222°
2026-05-07 23:55 40.30167 -28.37627 21752 ft 465 kts 221°
2026-05-07 23:55 40.27848 -28.40586 21749 ft 465 kts 221°
2026-05-07 23:55 40.25530 -28.43538 21747 ft 465 kts 221°
2026-05-07 23:55 40.23214 -28.46486 21744 ft 465 kts 221°
2026-05-07 23:56 40.20893 -28.49438 21742 ft 465 kts 221°
2026-05-07 23:56 40.18574 -28.52384 21739 ft 465 kts 221°
2026-05-07 23:56 40.16245 -28.55339 21737 ft 464 kts 221°
2026-05-07 23:56 40.13957 -28.58239 21734 ft 464 kts 221°
2026-05-07 23:57 40.11637 -28.61178 21732 ft 464 kts 221°
2026-05-07 23:57 40.09314 -28.64117 21731 ft 464 kts 221°
2026-05-07 23:57 40.06984 -28.67062 21728 ft 464 kts 221°
2026-05-07 23:57 40.04661 -28.69995 21725 ft 464 kts 221°
2026-05-07 23:58 40.02357 -28.72901 21722 ft 464 kts 221°
2026-05-07 23:58 40.00036 -28.75826 21720 ft 464 kts 221°
2026-05-07 23:58 39.97714 -28.78749 21718 ft 464 kts 221°
2026-05-07 23:58 39.95414 -28.81642 21715 ft 464 kts 221°
2026-05-07 23:59 39.93090 -28.84562 21713 ft 464 kts 221°
2026-05-07 23:59 39.90763 -28.87482 21710 ft 464 kts 221°
2026-05-07 23:59 39.88436 -28.90399 21709 ft 464 kts 221°
2026-05-07 23:59 39.86107 -28.93317 21706 ft 464 kts 221°
2026-05-08 00:00 39.83778 -28.96231 21704 ft 464 kts 221°
2026-05-08 00:00 39.81449 -28.99143 21701 ft 464 kts 221°
2026-05-08 00:00 39.79119 -29.02052 21699 ft 464 kts 221°
2026-05-08 00:00 39.76793 -29.04954 21696 ft 464 kts 221°
2026-05-08 00:01 39.74589 -29.07703 21695 ft 464 kts 221°
2026-05-08 00:01 39.72259 -29.10605 21694 ft 464 kts 221°
2026-05-08 00:01 39.69930 -29.13502 21690 ft 464 kts 221°
2026-05-08 00:01 39.67599 -29.16397 21687 ft 464 kts 221°
2026-05-08 00:02 39.65264 -29.19296 21685 ft 464 kts 221°
2026-05-08 00:02 39.62933 -29.22187 21683 ft 464 kts 221°
2026-05-08 00:02 39.60599 -29.25079 21680 ft 464 kts 221°
2026-05-08 00:02 39.58271 -29.27960 21678 ft 463 kts 221°
2026-05-08 00:03 39.55941 -29.30842 21675 ft 463 kts 221°
2026-05-08 00:03 39.53639 -29.33686 21673 ft 463 kts 221°
2026-05-08 00:03 39.51304 -29.36568 21671 ft 463 kts 221°
2026-05-08 00:03 39.48970 -29.39446 21668 ft 463 kts 221°
2026-05-08 00:04 39.46628 -29.42331 21667 ft 463 kts 221°
2026-05-08 00:04 39.44293 -29.45204 21663 ft 463 kts 221°
2026-05-08 00:04 39.41954 -29.48080 21661 ft 463 kts 221°
2026-05-08 00:04 39.39611 -29.50958 21659 ft 463 kts 221°
2026-05-08 00:05 39.37303 -29.53790 21656 ft 463 kts 221°
2026-05-08 00:05 39.34966 -29.56655 21653 ft 463 kts 221°
2026-05-08 00:05 39.32630 -29.59517 21651 ft 463 kts 221°
2026-05-08 00:05 39.30286 -29.62384 21649 ft 463 kts 221°
2026-05-08 00:06 39.27939 -29.65253 21646 ft 463 kts 221°
2026-05-08 00:06 39.25598 -29.68112 21644 ft 463 kts 221°
2026-05-08 00:06 39.23256 -29.70970 21641 ft 463 kts 221°
2026-05-08 00:06 39.20911 -29.73827 21639 ft 463 kts 221°
2026-05-08 00:07 39.18618 -29.76619 21637 ft 463 kts 221°
2026-05-08 00:07 39.16278 -29.79465 21636 ft 463 kts 221°
2026-05-08 00:07 39.13930 -29.82319 21632 ft 463 kts 221°
2026-05-08 00:07 39.11588 -29.85163 21629 ft 463 kts 221°
2026-05-08 00:08 39.09243 -29.88008 21627 ft 463 kts 221°
2026-05-08 00:08 39.06899 -29.90847 21624 ft 463 kts 220°
2026-05-08 00:08 39.04557 -29.93683 21621 ft 463 kts 220°
2026-05-08 00:08 39.02209 -29.96523 21619 ft 463 kts 220°
2026-05-08 00:09 38.99947 -29.99480 21564 ft 463 kts 226°
2026-05-08 00:09 38.97878 -30.02644 21609 ft 462 kts 228°
2026-05-08 00:09 38.95863 -30.05865 21613 ft 462 kts 229°
2026-05-08 00:09 38.93883 -30.09112 21603 ft 462 kts 230°
2026-05-08 00:10 38.91939 -30.12346 21599 ft 462 kts 230°
2026-05-08 00:10 38.89980 -30.15618 21596 ft 462 kts 230°
2026-05-08 00:10 38.88014 -30.18901 21592 ft 462 kts 230°
2026-05-08 00:10 38.86054 -30.22163 21590 ft 462 kts 230°
2026-05-08 00:11 38.84086 -30.25428 21587 ft 462 kts 230°
2026-05-08 00:11 38.82116 -30.28687 21585 ft 462 kts 230°
2026-05-08 00:11 38.80140 -30.31948 21582 ft 462 kts 230°
2026-05-08 00:11 38.78167 -30.35199 21579 ft 462 kts 229°
2026-05-08 00:12 38.76862 -30.37348 21578 ft 462 kts 229°
2026-05-08 00:12 38.74242 -30.41657 21575 ft 462 kts 229°
2026-05-08 00:12 38.72263 -30.44907 21573 ft 462 kts 229°
2026-05-08 00:12 38.70285 -30.48153 21572 ft 462 kts 229°
2026-05-08 00:13 38.68309 -30.51393 21569 ft 462 kts 229°
2026-05-08 00:13 38.66998 -30.53541 21568 ft 462 kts 229°
2026-05-08 00:13 38.65017 -30.56784 21565 ft 462 kts 229°
2026-05-08 00:13 38.63035 -30.60024 21563 ft 462 kts 229°
2026-05-08 00:14 38.61054 -30.63261 21561 ft 462 kts 229°
2026-05-08 00:14 38.59069 -30.66501 21561 ft 462 kts 229°
2026-05-08 00:14 38.57088 -30.69730 21560 ft 462 kts 229°
2026-05-08 00:14 38.55105 -30.72960 21557 ft 462 kts 229°
2026-05-08 00:15 38.53118 -30.76193 21553 ft 462 kts 229°
2026-05-08 00:15 38.51130 -30.79423 21552 ft 462 kts 229°
2026-05-08 00:15 38.49172 -30.82604 21551 ft 461 kts 229°
2026-05-08 00:15 38.47188 -30.85822 21548 ft 461 kts 229°
2026-05-08 00:16 38.45198 -30.89047 21545 ft 461 kts 229°
2026-05-08 00:16 38.43213 -30.92261 21544 ft 461 kts 229°
2026-05-08 00:16 38.41225 -30.95476 21541 ft 461 kts 229°
2026-05-08 00:16 38.39237 -30.98689 21540 ft 461 kts 229°
2026-05-08 00:17 38.37247 -31.01902 21538 ft 461 kts 229°
2026-05-08 00:17 38.35257 -31.05110 21536 ft 461 kts 229°
2026-05-08 00:17 38.33268 -31.08314 21534 ft 461 kts 229°
2026-05-08 00:17 38.31277 -31.11520 21532 ft 461 kts 229°
2026-05-08 00:18 38.29285 -31.14722 21530 ft 461 kts 229°
2026-05-08 00:18 38.27290 -31.17926 21528 ft 461 kts 229°
2026-05-08 00:18 38.25296 -31.21127 21526 ft 461 kts 229°
2026-05-08 00:18 38.23329 -31.24280 21524 ft 461 kts 229°
2026-05-08 00:19 38.21334 -31.27475 21522 ft 461 kts 229°
2026-05-08 00:19 38.19338 -31.30668 21520 ft 461 kts 229°
2026-05-08 00:19 38.17344 -31.33856 21518 ft 461 kts 229°
2026-05-08 00:19 38.15348 -31.37044 21516 ft 461 kts 229°
2026-05-08 00:20 38.13352 -31.40228 21514 ft 461 kts 229°
2026-05-08 00:20 38.11355 -31.43411 21513 ft 461 kts 229°
2026-05-08 00:20 38.09355 -31.46594 21510 ft 461 kts 229°
2026-05-08 00:20 38.07356 -31.49774 21508 ft 461 kts 229°
2026-05-08 00:21 38.05354 -31.52956 21506 ft 461 kts 229°
2026-05-08 00:21 38.03349 -31.56139 21505 ft 461 kts 229°
2026-05-08 00:21 38.01372 -31.59275 21503 ft 461 kts 229°
2026-05-08 00:21 37.99368 -31.62449 21501 ft 461 kts 229°
2026-05-08 00:22 37.97365 -31.65620 21499 ft 461 kts 229°
2026-05-08 00:22 37.95359 -31.68792 21497 ft 461 kts 229°
2026-05-08 00:22 37.93349 -31.71969 21495 ft 461 kts 229°
2026-05-08 00:22 37.91339 -31.75141 21493 ft 461 kts 229°
2026-05-08 00:23 37.89359 -31.78263 21492 ft 460 kts 229°
2026-05-08 00:23 37.87350 -31.81428 21490 ft 460 kts 229°
2026-05-08 00:23 37.85369 -31.84545 21488 ft 460 kts 229°
2026-05-08 00:23 37.83364 -31.87696 21487 ft 460 kts 229°
2026-05-08 00:24 37.81348 -31.90863 21484 ft 460 kts 229°
2026-05-08 00:24 37.79336 -31.94020 21482 ft 460 kts 228°
2026-05-08 00:24 37.77325 -31.97173 21480 ft 460 kts 228°
2026-05-08 00:24 37.75314 -32.00323 21479 ft 460 kts 228°
2026-05-08 00:25 37.73299 -32.03475 21477 ft 460 kts 228°
2026-05-08 00:25 37.71285 -32.06624 21474 ft 460 kts 228°
2026-05-08 00:25 37.69296 -32.09731 21472 ft 460 kts 228°
2026-05-08 00:25 37.67285 -32.12868 21470 ft 460 kts 228°
2026-05-08 00:26 37.65268 -32.16012 21468 ft 460 kts 228°
2026-05-08 00:26 37.63253 -32.19149 21466 ft 460 kts 228°
2026-05-08 00:26 37.61238 -32.22285 21463 ft 460 kts 228°
2026-05-08 00:26 37.59224 -32.25415 21461 ft 460 kts 228°
2026-05-08 00:27 37.57206 -32.28548 21459 ft 460 kts 228°
2026-05-08 00:27 37.55187 -32.31681 21457 ft 460 kts 228°
2026-05-08 00:27 37.53165 -32.34815 21455 ft 460 kts 228°
2026-05-08 00:27 37.51145 -32.37942 21454 ft 460 kts 228°
2026-05-08 00:28 37.49125 -32.41067 21451 ft 460 kts 228°
2026-05-08 00:28 37.47128 -32.44153 21448 ft 460 kts 228°
2026-05-08 00:28 37.45106 -32.47275 21445 ft 460 kts 228°
2026-05-08 00:28 37.43085 -32.50392 21443 ft 460 kts 228°
2026-05-08 00:29 37.41060 -32.53513 21441 ft 460 kts 228°
2026-05-08 00:29 37.39033 -32.56633 21438 ft 460 kts 228°
2026-05-08 00:29 37.37010 -32.59745 21436 ft 460 kts 228°
2026-05-08 00:29 37.34987 -32.62855 21433 ft 459 kts 228°
2026-05-08 00:30 37.32956 -32.65973 21431 ft 459 kts 228°
2026-05-08 00:30 37.30930 -32.69080 21429 ft 459 kts 228°
2026-05-08 00:30 37.28903 -32.72187 21426 ft 459 kts 228°
2026-05-08 00:30 37.26902 -32.75250 21423 ft 459 kts 228°
2026-05-08 00:31 37.24874 -32.78351 21421 ft 459 kts 228°
2026-05-08 00:31 37.22847 -32.81448 21418 ft 459 kts 228°
2026-05-08 00:31 37.20817 -32.84548 21416 ft 459 kts 228°
2026-05-08 00:31 37.18784 -32.87650 21414 ft 459 kts 228°
2026-05-08 00:32 37.16756 -32.90740 21411 ft 459 kts 228°
2026-05-08 00:32 37.14723 -32.93834 21407 ft 459 kts 228°
2026-05-08 00:32 37.12692 -32.96923 21405 ft 459 kts 228°
2026-05-08 00:32 37.10655 -33.00018 21402 ft 459 kts 228°
2026-05-08 00:33 37.08621 -33.03107 21400 ft 459 kts 227°
2026-05-08 00:33 37.06614 -33.06150 21397 ft 459 kts 227°
2026-05-08 00:33 37.04576 -33.09239 21394 ft 459 kts 227°
2026-05-08 00:33 37.02542 -33.12317 21390 ft 459 kts 227°
2026-05-08 00:34 37.00508 -33.15395 21388 ft 459 kts 227°
2026-05-08 00:34 36.98493 -33.18440 21385 ft 459 kts 227°
2026-05-08 00:34 36.96459 -33.21511 21383 ft 459 kts 227°
2026-05-08 00:34 36.94443 -33.24552 21379 ft 459 kts 227°
2026-05-08 00:35 36.92404 -33.27625 21376 ft 459 kts 227°
2026-05-08 00:35 36.90365 -33.30695 21372 ft 459 kts 227°
2026-05-08 00:35 36.88324 -33.33764 21369 ft 459 kts 227°
2026-05-08 00:35 36.86279 -33.36837 21366 ft 459 kts 227°
2026-05-08 00:36 36.84235 -33.39906 21363 ft 458 kts 227°
2026-05-08 00:36 36.82222 -33.42926 21359 ft 458 kts 227°
2026-05-08 00:36 36.80182 -33.45984 21356 ft 458 kts 227°
2026-05-08 00:36 36.78139 -33.49043 21353 ft 458 kts 227°
2026-05-08 00:37 36.76092 -33.52104 21350 ft 458 kts 227°
2026-05-08 00:37 36.74042 -33.55169 21347 ft 458 kts 227°
2026-05-08 00:37 36.72022 -33.58184 21343 ft 458 kts 227°
2026-05-08 00:38 36.67930 -33.64287 21336 ft 458 kts 227°
2026-05-08 00:38 36.65883 -33.67336 21332 ft 458 kts 227°
2026-05-08 00:38 36.63836 -33.70380 21329 ft 458 kts 227°
2026-05-08 00:38 36.61790 -33.73422 21325 ft 458 kts 227°
2026-05-08 00:39 36.59746 -33.76455 21322 ft 458 kts 227°
2026-05-08 00:39 36.57697 -33.79497 21318 ft 458 kts 227°
2026-05-08 00:39 36.55649 -33.82531 21314 ft 458 kts 227°
2026-05-08 00:39 36.53603 -33.85562 21311 ft 458 kts 227°
2026-05-08 00:40 36.51581 -33.88554 21307 ft 458 kts 227°
2026-05-08 00:40 36.49531 -33.91584 21304 ft 458 kts 227°
2026-05-08 00:40 36.47483 -33.94609 21300 ft 458 kts 227°
2026-05-08 00:40 36.45433 -33.97635 21296 ft 458 kts 227°
2026-05-08 00:41 36.43380 -34.00661 21293 ft 457 kts 227°
2026-05-08 00:41 36.41328 -34.03684 21289 ft 457 kts 227°
2026-05-08 00:41 36.39271 -34.06711 21285 ft 457 kts 227°
2026-05-08 00:41 36.37242 -34.09694 21281 ft 457 kts 227°
2026-05-08 00:42 36.35189 -34.12711 21278 ft 457 kts 227°
2026-05-08 00:42 36.33135 -34.15726 21274 ft 457 kts 227°
2026-05-08 00:42 36.31080 -34.18739 21272 ft 457 kts 227°
2026-05-08 00:42 36.29023 -34.21753 21268 ft 457 kts 227°
2026-05-08 00:43 36.26966 -34.24764 21264 ft 457 kts 227°
2026-05-08 00:43 36.24913 -34.27767 21260 ft 457 kts 227°
2026-05-08 00:43 36.22854 -34.30776 21258 ft 457 kts 227°
2026-05-08 00:43 36.20795 -34.33782 21254 ft 457 kts 227°
2026-05-08 00:44 36.18738 -34.36782 21250 ft 457 kts 227°
2026-05-08 00:44 36.16703 -34.39747 21247 ft 457 kts 227°
2026-05-08 00:44 36.14646 -34.42743 21243 ft 457 kts 227°
2026-05-08 00:44 36.12582 -34.45745 21241 ft 457 kts 227°
2026-05-08 00:45 36.10525 -34.48735 21237 ft 457 kts 227°
2026-05-08 00:45 36.08463 -34.51729 21234 ft 457 kts 227°
2026-05-08 00:45 36.06402 -34.54720 21231 ft 457 kts 227°
2026-05-08 00:45 36.04342 -34.57706 21227 ft 457 kts 227°
2026-05-08 00:46 36.02279 -34.60694 21225 ft 457 kts 227°
2026-05-08 00:46 36.00214 -34.63681 21221 ft 457 kts 227°
2026-05-08 00:46 35.98150 -34.66666 21218 ft 456 kts 227°
2026-05-08 00:46 35.96111 -34.69611 21215 ft 456 kts 226°
2026-05-08 00:47 35.94048 -34.72589 21212 ft 456 kts 226°
2026-05-08 00:47 35.91983 -34.75567 21209 ft 456 kts 226°
2026-05-08 00:47 35.89919 -34.78541 21206 ft 456 kts 226°
2026-05-08 00:47 35.87854 -34.81512 21204 ft 456 kts 226°
2026-05-08 00:48 35.85789 -34.84483 21201 ft 456 kts 226°
2026-05-08 00:48 35.83721 -34.87454 21198 ft 456 kts 226°
2026-05-08 00:48 35.81652 -34.90424 21194 ft 456 kts 226°
2026-05-08 00:48 35.79586 -34.93388 21191 ft 456 kts 226°
2026-05-08 00:49 35.77514 -34.96357 21189 ft 456 kts 226°
2026-05-08 00:49 35.75449 -34.99315 21186 ft 456 kts 226°
2026-05-08 00:49 35.73377 -35.02280 21183 ft 456 kts 226°
2026-05-08 00:49 35.71336 -35.05197 21180 ft 456 kts 226°
2026-05-08 00:50 35.69263 -35.08157 21178 ft 456 kts 226°
2026-05-08 00:50 35.67193 -35.11111 21175 ft 456 kts 226°
2026-05-08 00:50 35.65121 -35.14065 21172 ft 456 kts 226°
2026-05-08 00:50 35.63051 -35.17013 21169 ft 456 kts 226°
2026-05-08 00:51 35.60973 -35.19971 21168 ft 456 kts 226°
2026-05-08 00:51 35.58900 -35.22920 21165 ft 456 kts 226°
2026-05-08 00:51 35.56826 -35.25867 21162 ft 456 kts 226°
2026-05-08 00:51 35.54752 -35.28810 21159 ft 456 kts 226°
2026-05-08 00:52 35.52678 -35.31752 21157 ft 456 kts 226°
2026-05-08 00:52 35.50603 -35.34692 21154 ft 456 kts 226°
2026-05-08 00:52 35.48529 -35.37629 21151 ft 455 kts 226°
2026-05-08 00:52 35.46451 -35.40569 21147 ft 455 kts 226°
2026-05-08 00:53 35.44375 -35.43503 21144 ft 455 kts 226°
2026-05-08 00:53 35.42317 -35.46409 21141 ft 455 kts 226°
2026-05-08 00:53 35.40241 -35.49339 21138 ft 455 kts 226°
2026-05-08 00:53 35.38163 -35.52268 21135 ft 455 kts 226°
2026-05-08 00:54 35.36080 -35.55203 21132 ft 455 kts 226°
2026-05-08 00:54 35.34005 -35.58124 21130 ft 455 kts 226°
2026-05-08 00:54 35.31925 -35.61048 21127 ft 455 kts 226°
2026-05-08 00:54 35.29845 -35.63971 21124 ft 455 kts 226°
2026-05-08 00:55 35.27760 -35.66898 21121 ft 455 kts 226°
2026-05-08 00:55 35.25672 -35.69827 21118 ft 455 kts 226°
2026-05-08 00:55 35.23591 -35.72744 21115 ft 455 kts 226°
2026-05-08 00:55 35.21536 -35.75620 21112 ft 455 kts 226°
2026-05-08 00:56 35.19485 -35.78490 21109 ft 455 kts 226°
2026-05-08 00:56 35.17400 -35.81406 21105 ft 455 kts 226°
2026-05-08 00:56 35.15316 -35.84317 21104 ft 455 kts 226°
2026-05-08 00:56 35.13231 -35.87227 21100 ft 455 kts 226°
2026-05-08 00:57 35.11144 -35.90136 21097 ft 455 kts 226°
2026-05-08 00:57 35.09059 -35.93041 21094 ft 455 kts 226°
2026-05-08 00:57 35.06974 -35.95943 21091 ft 455 kts 226°
2026-05-08 00:57 35.04889 -35.98842 21088 ft 455 kts 226°
2026-05-08 00:58 35.02804 -36.01741 21085 ft 455 kts 226°
2026-05-08 00:58 35.00713 -36.04644 21082 ft 454 kts 226°
2026-05-08 00:58 34.98650 -36.07507 21079 ft 454 kts 226°
2026-05-08 00:58 34.96565 -36.10397 21076 ft 454 kts 226°
2026-05-08 00:59 34.94474 -36.13293 21073 ft 454 kts 226°
2026-05-08 00:59 34.92382 -36.16187 21070 ft 454 kts 226°
2026-05-08 00:59 34.90295 -36.19074 21066 ft 454 kts 226°
2026-05-08 00:59 34.88204 -36.21962 21064 ft 454 kts 226°
2026-05-08 01:00 34.86113 -36.24849 21061 ft 454 kts 226°
2026-05-08 01:00 34.84023 -36.27732 21057 ft 454 kts 226°
2026-05-08 01:00 34.81930 -36.30616 21055 ft 454 kts 226°
2026-05-08 01:00 34.79831 -36.33506 21052 ft 454 kts 226°
2026-05-08 01:01 34.77740 -36.36383 21048 ft 454 kts 226°
2026-05-08 01:01 34.75674 -36.39223 21045 ft 454 kts 225°
2026-05-08 01:01 34.73581 -36.42098 21042 ft 454 kts 225°
2026-05-08 01:01 34.71484 -36.44976 21039 ft 454 kts 225°
2026-05-08 01:02 34.69386 -36.47852 21037 ft 454 kts 225°
2026-05-08 01:02 34.67289 -36.50725 21034 ft 454 kts 225°
2026-05-08 01:02 34.65900 -36.52628 21032 ft 454 kts 225°
2026-05-08 01:02 34.63802 -36.55498 21028 ft 454 kts 225°
2026-05-08 01:03 34.61019 -36.59302 21024 ft 454 kts 225°
2026-05-08 01:03 34.58920 -36.62170 21021 ft 454 kts 225°
2026-05-08 01:03 34.57524 -36.64074 21018 ft 454 kts 225°
2026-05-08 01:03 34.55425 -36.66937 21016 ft 454 kts 225°
2026-05-08 01:04 34.53328 -36.69795 21013 ft 454 kts 225°
2026-05-08 01:04 34.50544 -36.73584 21008 ft 453 kts 225°
2026-05-08 01:04 34.49119 -36.75522 21007 ft 453 kts 225°
2026-05-08 01:04 34.47021 -36.78375 21003 ft 453 kts 225°
2026-05-08 01:05 34.44947 -36.81191 21000 ft 453 kts 225°
2026-05-08 01:05 34.42847 -36.84041 20997 ft 453 kts 225°
2026-05-08 01:05 34.40753 -36.86881 20995 ft 453 kts 225°
2026-05-08 01:05 34.38656 -36.89722 20994 ft 453 kts 225°
2026-05-08 01:06 34.36555 -36.92566 20991 ft 453 kts 225°
2026-05-08 01:06 34.34449 -36.95414 20987 ft 453 kts 225°
2026-05-08 01:06 34.32346 -36.98257 20983 ft 453 kts 225°
2026-05-08 01:06 34.30247 -37.01092 20983 ft 453 kts 225°
2026-05-08 01:07 34.28142 -37.03933 20980 ft 453 kts 225°
2026-05-08 01:07 34.26035 -37.06773 20976 ft 453 kts 225°
2026-05-08 01:07 34.23933 -37.09605 20974 ft 453 kts 225°
2026-05-08 01:07 34.21852 -37.12405 20972 ft 453 kts 225°
2026-05-08 01:08 34.19747 -37.15237 20969 ft 453 kts 225°
2026-05-08 01:08 34.17641 -37.18067 20966 ft 453 kts 225°
2026-05-08 01:08 34.15532 -37.20899 20964 ft 453 kts 225°
2026-05-08 01:08 34.13425 -37.23726 20961 ft 453 kts 225°
2026-05-08 01:09 34.11317 -37.26553 20958 ft 453 kts 225°
2026-05-08 01:09 34.09207 -37.29380 20956 ft 453 kts 225°
2026-05-08 01:09 34.07098 -37.32202 20952 ft 453 kts 225°
2026-05-08 01:09 34.04990 -37.35022 20950 ft 453 kts 225°
2026-05-08 01:10 34.02904 -37.37809 20948 ft 453 kts 225°
2026-05-08 01:10 34.00795 -37.40626 20946 ft 453 kts 225°
2026-05-08 01:10 33.98685 -37.43441 20943 ft 452 kts 225°
2026-05-08 01:10 33.96575 -37.46254 20940 ft 452 kts 225°
2026-05-08 01:11 33.94462 -37.49068 20937 ft 452 kts 225°
2026-05-08 01:11 33.92351 -37.51879 20935 ft 452 kts 225°
2026-05-08 01:11 33.90234 -37.54693 20932 ft 452 kts 225°
2026-05-08 01:11 33.88120 -37.57504 20930 ft 452 kts 225°
2026-05-08 01:12 33.86009 -37.60307 20927 ft 452 kts 225°
2026-05-08 01:12 33.83895 -37.63111 20925 ft 452 kts 225°
2026-05-08 01:12 33.81807 -37.65880 20922 ft 452 kts 225°
2026-05-08 01:12 33.79693 -37.68680 20920 ft 452 kts 225°
2026-05-08 01:13 33.77574 -37.71484 20918 ft 452 kts 225°
2026-05-08 01:13 33.75461 -37.74279 20916 ft 452 kts 225°
2026-05-08 01:13 33.73342 -37.77080 20913 ft 452 kts 225°
2026-05-08 01:13 33.71226 -37.79874 20911 ft 452 kts 225°
2026-05-08 01:14 33.69110 -37.82667 20908 ft 452 kts 225°
2026-05-08 01:14 33.66994 -37.85456 20906 ft 452 kts 225°
2026-05-08 01:14 33.64875 -37.88248 20903 ft 452 kts 225°
2026-05-08 01:14 33.62757 -37.91035 20901 ft 452 kts 225°
2026-05-08 01:15 33.60639 -37.93821 20898 ft 452 kts 225°
2026-05-08 01:15 33.58514 -37.96613 20896 ft 452 kts 225°
2026-05-08 01:15 33.56418 -37.99366 20894 ft 452 kts 225°
2026-05-08 01:15 33.54300 -38.02146 20892 ft 452 kts 225°
2026-05-08 01:16 33.52179 -38.04927 20890 ft 452 kts 225°
2026-05-08 01:16 33.50056 -38.07708 20888 ft 452 kts 225°
2026-05-08 01:16 33.47933 -38.10488 20886 ft 452 kts 225°
2026-05-08 01:16 33.45813 -38.13261 20883 ft 452 kts 224°
2026-05-08 01:17 33.43684 -38.16044 20881 ft 452 kts 224°
2026-05-08 01:17 33.41561 -38.18817 20880 ft 451 kts 224°
2026-05-08 01:17 33.39467 -38.21550 20878 ft 451 kts 224°
2026-05-08 01:17 33.37337 -38.24328 20876 ft 451 kts 224°
2026-05-08 01:18 33.35212 -38.27095 20874 ft 451 kts 224°
2026-05-08 01:18 33.33087 -38.29862 20872 ft 451 kts 224°
2026-05-08 01:18 33.30958 -38.32632 20871 ft 451 kts 224°
2026-05-08 01:18 33.28837 -38.35390 20869 ft 451 kts 224°
2026-05-08 01:19 33.26711 -38.38152 20866 ft 451 kts 224°
2026-05-08 01:19 33.24585 -38.40912 20865 ft 451 kts 224°
2026-05-08 01:19 33.22460 -38.43668 20863 ft 451 kts 224°
2026-05-08 01:19 33.20333 -38.46424 20861 ft 451 kts 224°
2026-05-08 01:20 33.18207 -38.49178 20859 ft 451 kts 224°
2026-05-08 01:20 33.16079 -38.51930 20857 ft 451 kts 224°
2026-05-08 01:20 33.13949 -38.54685 20855 ft 451 kts 224°
2026-05-08 01:20 33.11847 -38.57400 20853 ft 451 kts 224°
2026-05-08 01:21 33.09717 -38.60151 20852 ft 451 kts 224°
2026-05-08 01:21 33.07583 -38.62903 20850 ft 451 kts 224°
2026-05-08 01:21 33.05455 -38.65646 20847 ft 451 kts 224°
2026-05-08 01:21 33.03324 -38.68391 20845 ft 451 kts 224°
2026-05-08 01:22 33.01194 -38.71133 20845 ft 451 kts 224°
2026-05-08 01:22 32.99061 -38.73876 20842 ft 451 kts 224°
2026-05-08 01:22 32.96930 -38.76615 20841 ft 451 kts 224°
2026-05-08 01:22 32.94800 -38.79351 20839 ft 451 kts 224°
2026-05-08 01:23 32.92661 -38.82095 20836 ft 451 kts 224°
2026-05-08 01:23 32.90529 -38.84828 20835 ft 451 kts 224°
2026-05-08 01:23 32.88395 -38.87562 20833 ft 451 kts 224°
2026-05-08 01:23 32.86260 -38.90296 20831 ft 451 kts 224°
2026-05-08 01:24 32.84125 -38.93026 20829 ft 451 kts 224°
2026-05-08 01:24 32.81988 -38.95759 20827 ft 451 kts 224°
2026-05-08 01:24 32.79877 -38.98455 20825 ft 450 kts 224°
2026-05-08 01:24 32.77740 -39.01183 20823 ft 450 kts 224°
2026-05-08 01:25 32.75602 -39.03910 20822 ft 450 kts 224°
2026-05-08 01:25 32.73456 -39.06645 20821 ft 450 kts 224°
2026-05-08 01:25 32.71320 -39.09365 20818 ft 450 kts 224°
2026-05-08 01:25 32.69180 -39.12087 20817 ft 450 kts 224°
2026-05-08 01:26 32.67037 -39.14813 20815 ft 450 kts 224°
2026-05-08 01:26 32.64903 -39.17524 20813 ft 450 kts 224°
2026-05-08 01:26 32.62764 -39.20240 20812 ft 450 kts 224°
2026-05-08 01:26 32.60653 -39.22919 20810 ft 450 kts 224°
2026-05-08 01:27 32.58511 -39.25634 20808 ft 450 kts 224°
2026-05-08 01:27 32.56364 -39.28353 20807 ft 450 kts 224°
2026-05-08 01:27 32.54221 -39.31066 20805 ft 450 kts 224°
2026-05-08 01:27 32.52076 -39.33779 20803 ft 450 kts 224°
2026-05-08 01:28 32.49934 -39.36486 20801 ft 450 kts 224°
2026-05-08 01:28 32.47814 -39.39164 20800 ft 450 kts 224°
2026-05-08 01:28 32.45671 -39.41868 20798 ft 450 kts 224°
2026-05-08 01:28 32.43528 -39.44571 20797 ft 450 kts 224°
2026-05-08 01:29 32.41381 -39.47277 20795 ft 450 kts 224°
2026-05-08 01:29 32.39233 -39.49982 20793 ft 450 kts 224°
2026-05-08 01:29 32.37118 -39.52643 20792 ft 450 kts 224°
2026-05-08 01:29 32.34973 -39.55341 20791 ft 450 kts 224°
2026-05-08 01:30 32.32821 -39.58044 20789 ft 450 kts 224°
2026-05-08 01:30 32.30678 -39.60735 20787 ft 450 kts 224°
2026-05-08 01:30 32.28531 -39.63429 20786 ft 450 kts 224°
2026-05-08 01:30 32.26386 -39.66118 20784 ft 450 kts 224°
2026-05-08 01:31 32.24237 -39.68810 20783 ft 450 kts 224°
2026-05-08 01:31 32.22088 -39.71500 20782 ft 450 kts 224°
2026-05-08 01:31 32.19970 -39.74150 20780 ft 450 kts 224°
2026-05-08 01:31 32.17823 -39.76833 20779 ft 450 kts 224°
2026-05-08 01:32 32.15666 -39.79528 20778 ft 450 kts 224°
2026-05-08 01:32 32.13514 -39.82214 20776 ft 450 kts 224°
2026-05-08 01:32 32.11360 -39.84901 20775 ft 449 kts 224°
2026-05-08 01:32 32.09235 -39.87548 20774 ft 449 kts 224°
2026-05-08 01:33 32.07081 -39.90231 20772 ft 449 kts 224°
2026-05-08 01:33 32.04929 -39.92909 20770 ft 449 kts 223°
2026-05-08 01:33 32.02778 -39.95584 20770 ft 449 kts 223°
2026-05-08 01:33 32.00643 -39.98278 20734 ft 450 kts 226°
2026-05-08 01:34 31.98675 -40.01145 20745 ft 450 kts 229°
2026-05-08 01:34 31.96785 -40.04068 20773 ft 449 kts 230°
2026-05-08 01:34 31.94922 -40.07023 20763 ft 449 kts 231°
2026-05-08 01:34 31.93076 -40.09996 20758 ft 449 kts 231°
2026-05-08 01:35 31.91239 -40.12975 20756 ft 449 kts 231°
2026-05-08 01:35 31.89404 -40.15954 20754 ft 449 kts 231°
2026-05-08 01:35 31.87587 -40.18900 20752 ft 449 kts 231°
2026-05-08 01:35 31.85749 -40.21872 20750 ft 449 kts 231°
2026-05-08 01:36 31.83907 -40.24844 20749 ft 449 kts 231°
2026-05-08 01:36 31.82064 -40.27810 20747 ft 449 kts 231°
2026-05-08 01:36 31.80218 -40.30778 20746 ft 449 kts 231°
2026-05-08 01:36 31.78394 -40.33706 20745 ft 449 kts 231°
2026-05-08 01:37 31.76551 -40.36662 20744 ft 449 kts 231°
2026-05-08 01:37 31.74703 -40.39624 20742 ft 449 kts 231°
2026-05-08 01:37 31.72853 -40.42588 20742 ft 449 kts 231°
2026-05-08 01:37 31.71005 -40.45546 20740 ft 449 kts 231°
2026-05-08 01:38 31.69159 -40.48499 20739 ft 449 kts 231°
2026-05-08 01:38 31.67307 -40.51458 20737 ft 449 kts 231°
2026-05-08 01:38 31.65460 -40.54408 20736 ft 449 kts 231°
2026-05-08 01:38 31.63611 -40.57359 20735 ft 449 kts 231°
2026-05-08 01:39 31.61757 -40.60315 20734 ft 449 kts 230°
2026-05-08 01:39 31.60530 -40.62270 20733 ft 449 kts 230°
2026-05-08 01:39 31.58077 -40.66177 20731 ft 449 kts 230°
2026-05-08 01:39 31.56224 -40.69125 20730 ft 449 kts 230°
2026-05-08 01:40 31.54373 -40.72068 20728 ft 449 kts 230°
2026-05-08 01:40 31.52520 -40.75011 20727 ft 449 kts 230°
2026-05-08 01:40 31.50667 -40.77952 20726 ft 449 kts 230°
2026-05-08 01:40 31.48808 -40.80902 20724 ft 449 kts 230°
2026-05-08 01:41 31.46947 -40.83852 20723 ft 448 kts 230°
2026-05-08 01:41 31.45094 -40.86786 20722 ft 448 kts 230°
2026-05-08 01:41 31.43236 -40.89727 20720 ft 448 kts 230°
2026-05-08 01:41 31.41377 -40.92665 20719 ft 448 kts 230°
2026-05-08 01:42 31.39542 -40.95565 20717 ft 448 kts 230°
2026-05-08 01:42 31.37681 -40.98504 20716 ft 448 kts 230°
2026-05-08 01:42 31.35824 -41.01434 20714 ft 448 kts 230°
2026-05-08 01:42 31.33966 -41.04364 20713 ft 448 kts 230°
2026-05-08 01:43 31.32108 -41.07290 20712 ft 448 kts 230°
2026-05-08 01:43 31.30247 -41.10220 20710 ft 448 kts 230°
2026-05-08 01:43 31.28388 -41.13144 20709 ft 448 kts 230°
2026-05-08 01:43 31.26526 -41.16071 20707 ft 448 kts 230°
2026-05-08 01:44 31.24667 -41.18992 20706 ft 448 kts 230°
2026-05-08 01:44 31.22802 -41.21919 20704 ft 448 kts 230°
2026-05-08 01:44 31.20939 -41.24840 20703 ft 448 kts 230°
2026-05-08 01:44 31.19076 -41.27760 20701 ft 448 kts 230°
2026-05-08 01:45 31.17213 -41.30677 20699 ft 448 kts 230°
2026-05-08 01:45 31.15373 -41.33557 20698 ft 448 kts 230°
2026-05-08 01:45 31.13511 -41.36468 20697 ft 448 kts 230°
2026-05-08 01:45 31.11645 -41.39384 20695 ft 448 kts 230°
2026-05-08 01:46 31.09776 -41.42302 20693 ft 448 kts 230°
2026-05-08 01:46 31.07908 -41.45217 20692 ft 448 kts 230°
2026-05-08 01:46 31.06040 -41.48129 20690 ft 448 kts 230°
2026-05-08 01:46 31.04171 -41.51039 20688 ft 448 kts 230°
2026-05-08 01:47 31.02304 -41.53946 20687 ft 448 kts 230°
2026-05-08 01:47 31.00437 -41.56851 20686 ft 448 kts 230°
2026-05-08 01:47 30.98567 -41.59756 20683 ft 448 kts 230°
2026-05-08 01:48 30.94848 -41.65532 20680 ft 448 kts 230°
2026-05-08 01:48 30.92977 -41.68433 20678 ft 448 kts 230°
2026-05-08 01:48 30.91108 -41.71330 20676 ft 448 kts 230°
2026-05-08 01:48 30.89237 -41.74227 20674 ft 448 kts 230°
2026-05-08 01:49 30.87366 -41.77123 20673 ft 447 kts 230°
2026-05-08 01:49 30.85493 -41.80019 20671 ft 447 kts 230°
2026-05-08 01:49 30.83621 -41.82912 20669 ft 447 kts 230°
2026-05-08 01:49 30.81749 -41.85802 20667 ft 447 kts 230°
2026-05-08 01:50 30.79873 -41.88696 20665 ft 447 kts 230°
2026-05-08 01:50 30.77996 -41.91592 20664 ft 447 kts 230°
2026-05-08 01:50 30.76119 -41.94484 20663 ft 447 kts 230°
2026-05-08 01:50 30.74267 -41.97335 20660 ft 447 kts 230°
2026-05-08 01:51 30.72394 -42.00217 20659 ft 447 kts 230°
2026-05-08 01:51 30.70519 -42.03098 20657 ft 447 kts 230°
2026-05-08 01:51 30.68639 -42.05987 20655 ft 447 kts 230°
2026-05-08 01:51 30.66764 -42.08866 20654 ft 447 kts 230°
2026-05-08 01:52 30.64886 -42.11747 20652 ft 447 kts 230°
2026-05-08 01:52 30.63008 -42.14625 20650 ft 447 kts 230°
2026-05-08 01:52 30.61128 -42.17505 20648 ft 447 kts 230°
2026-05-08 01:52 30.59248 -42.20383 20647 ft 447 kts 230°
2026-05-08 01:53 30.57360 -42.23270 20645 ft 447 kts 230°
2026-05-08 01:53 30.56116 -42.25173 20644 ft 447 kts 230°
2026-05-08 01:53 30.53620 -42.28984 20642 ft 447 kts 230°
2026-05-08 01:53 30.51742 -42.31852 20640 ft 447 kts 230°
2026-05-08 01:54 30.49861 -42.34720 20638 ft 447 kts 230°
2026-05-08 01:54 30.47978 -42.37589 20636 ft 447 kts 230°
2026-05-08 01:54 30.46704 -42.39531 20635 ft 447 kts 230°
2026-05-08 01:54 30.44821 -42.42398 20634 ft 447 kts 230°
2026-05-08 01:55 30.42939 -42.45260 20632 ft 447 kts 230°
2026-05-08 01:55 30.41050 -42.48130 20630 ft 447 kts 229°
2026-05-08 01:55 30.39192 -42.50954 20629 ft 447 kts 229°
2026-05-08 01:55 30.37309 -42.53812 20627 ft 447 kts 229°
2026-05-08 01:56 30.35424 -42.56671 20625 ft 447 kts 229°
2026-05-08 01:56 30.33539 -42.59528 20624 ft 447 kts 229°
2026-05-08 01:56 30.31650 -42.62389 20623 ft 447 kts 229°
2026-05-08 01:56 30.29762 -42.65246 20621 ft 446 kts 229°
2026-05-08 01:57 30.27871 -42.68106 20619 ft 446 kts 229°
2026-05-08 01:57 30.25982 -42.70961 20617 ft 446 kts 229°
2026-05-08 01:57 30.24095 -42.73812 20615 ft 446 kts 229°
2026-05-08 01:57 30.22204 -42.76665 20614 ft 446 kts 229°
2026-05-08 01:58 30.20315 -42.79514 20612 ft 446 kts 229°
2026-05-08 01:58 30.18426 -42.82362 20610 ft 446 kts 229°
2026-05-08 01:58 30.16537 -42.85207 20609 ft 446 kts 229°
2026-05-08 01:58 30.14671 -42.88015 20607 ft 446 kts 229°
2026-05-08 01:59 30.12777 -42.90864 20605 ft 446 kts 229°
2026-05-08 01:59 30.10885 -42.93706 20604 ft 446 kts 229°